Darstellungsparameter: Aktuell verwendete Einstellungen:
Skalierung der Graphiken ... ?
xyx+y,   Skalierungsfaktor:      Skalierung: Modus: x, Faktor: 1
Darstellungszeitraum ... ?
Vom - - bis: - -   Zeitraum: 25.03.2017 - 24.03.2020
Min/Max/Avg-Anzeige ... ?
Zeige MMA aktuell
Zeige MMA Monat
Zeige MMA alles
Zeige --A aktuell
Zeige --A Monat
Zeige --A alles
Keine MMA-Anzeige
MMA:
Average (ber die Originaldaten)
MMA-Basis: 25.03.2017 - 24.03.2020
Quicknavigation für Darstellung... ?
Tage:      1T, 2T, 3T, 5T -1T -2T -3T -5T +1T +2T +3T +5T
Wochen: 1W, 2W, 3W -1W -2W -3W +1W +2W +3W
Monate: 1M, 3M, 6M -1M -3M -6M +1M +3M +6M
Jahre:    1J, 3J, 5J, 10J -1J -3J -5J -10J +1J +3J +5J +10J
Nutze für die Darstellung ... ?
Originaldaten oder ...
Mittelwerte Minima Maxima auf...
Stundenbasis Tagesbasis Wochenbasis
Monatsbasis Jahresbasis      Datenbasis: Mittelwerte auf Tagesbasis
Darstellen als:
Statistik (Auto) Statistik J:M      Darstellung:
Zur Graphik,    zurück zur Übersicht aller Sensoren.
 
Tabellarische Datenbersicht: ?
 
Sensor: Nr:Datum:Temp:Feuchte:
Aussen-T/F 1 25-03-2017 00:00:00 9.54417 C 26.8417 %
2 26-03-2017 00:00:00 9.08696 C 20.0000 %
3 27-03-2017 00:00:00 8.34583 C 26.6083 %
4 28-03-2017 00:00:00 9.97417 C 22.6583 %
5 29-03-2017 00:00:00 12.77833 C 22.9417 %
6 30-03-2017 00:00:00 14.22417 C 22.9833 %
7 31-03-2017 00:00:00 13.35333 C 29.3000 %
8 01-04-2017 00:00:00 13.83417 C 20.9000 %
9 02-04-2017 00:00:00 11.94167 C 24.9167 %
10 03-04-2017 00:00:00 10.62 C 26.7750 %
11 04-04-2017 00:00:00 9.20333 C 28.3417 %
12 05-04-2017 00:00:00 8.82333 C 22.4667 %
13 06-04-2017 00:00:00 9.21083 C 20.3667 %
14 07-04-2017 00:00:00 10.40583 C 23.0667 %
15 08-04-2017 00:00:00 13.42167 C 20.0917 %
16 09-04-2017 00:00:00 12.59 C 28.2250 %
17 10-04-2017 00:00:00 10.98833 C 23.4333 %
18 11-04-2017 00:00:00 10.6675 C 20.0000 %
19 12-04-2017 00:00:00 11.54667 C 20.0083 %
20 13-04-2017 00:00:00 12.27417 C 20.7667 %
21 14-04-2017 00:00:00 10.30417 C 22.3083 %
22 15-04-2017 00:00:00 8.6675 C 21.4500 %
23 16-04-2017 00:00:00 7.34417 C 23.7417 %
24 17-04-2017 00:00:00 6.805 C 28.0667 %
25 18-04-2017 00:00:00 5.69667 C 20.6333 %
Sensor: Nr:Datum:Temp:Feuchte:
Aussen-T/F 26 19-04-2017 00:00:00 4.65667 C 28.3500 %
27 20-04-2017 00:00:00 6.6825 C 23.4667 %
28 21-04-2017 00:00:00 8.16917 C 22.1500 %
29 22-04-2017 00:00:00 9.88 C 20.0000 %
30 23-04-2017 00:00:00 7.65 C 20.5333 %
31 24-04-2017 00:00:00 6.5875 C 27.3250 %
32 25-04-2017 00:00:00 7.13193 C 20.0000 %
33 26-04-2017 00:00:00 7.62583 C 20.1500 %
34 27-04-2017 00:00:00 7.74917 C 23.9083 %
35 28-04-2017 00:00:00 6.26083 C 27.3167 %
36 29-04-2017 00:00:00 9.68667 C 30.5750 %
37 30-04-2017 00:00:00 11.3975 C 20.0000 %
38 01-05-2017 00:00:00 9.75083 C 27.4250 %
39 02-05-2017 00:00:00 8.5825 C 45.3500 %
40 03-05-2017 00:00:00 10.7175 C 39.5000 %
41 04-05-2017 00:00:00 11.94833 C 30.7750 %
42 05-05-2017 00:00:00 12.685 C 23.2667 %
43 06-05-2017 00:00:00 13.30333 C 33.1667 %
44 07-05-2017 00:00:00 12.8375 C 37.3083 %
45 08-05-2017 00:00:00 9.69083 C 26.5500 %
46 09-05-2017 00:00:00 11.87667 C 24.9000 %
47 10-05-2017 00:00:00 11.33833 C 26.9167 %
48 11-05-2017 00:00:00 14.63833 C 25.1750 %
49 12-05-2017 00:00:00 16.395 C 30.7500 %
50 13-05-2017 00:00:00 18.05917 C 28.5167 %
Sensor: Nr:Datum:Temp:Feuchte:
Aussen-T/F 51 14-05-2017 00:00:00 16.575 C 24.9333 %
52 15-05-2017 00:00:00 16.65 C 33.9583 %
53 16-05-2017 00:00:00 20.58167 C 20.0000 %
54 17-05-2017 00:00:00 21.33 C 20.8417 %
55 18-05-2017 00:00:00 18.02917 C 26.7583 %
56 19-05-2017 00:00:00 13.17667 C 46.5833 %
57 20-05-2017 00:00:00 12.655 C 37.4083 %
58 21-05-2017 00:00:00 14.64917 C 29.2750 %
59 22-05-2017 00:00:00 17.3675 C 27.8667 %
60 23-05-2017 00:00:00 19.65167 C 23.7417 %
61 24-05-2017 00:00:00 17.405 C 20.4000 %
62 25-05-2017 00:00:00 20.29 C 21.8917 %
63 26-05-2017 00:00:00 19.73833 C 24.5250 %
64 27-05-2017 00:00:00 22.6075 C 24.8667 %
65 28-05-2017 00:00:00 21.81583 C 24.8250 %
66 29-05-2017 00:00:00 24.57833 C 34.4500 %
67 30-05-2017 00:00:00 22.94833 C 21.0500 %
68 31-05-2017 00:00:00 20.15917 C 21.0333 %
69 01-06-2017 00:00:00 20.24833 C 23.6500 %
70 02-06-2017 00:00:00 19.48083 C 25.5083 %
71 03-06-2017 00:00:00 19.46417 C 36.0000 %
72 04-06-2017 00:00:00 16.96583 C 37.9333 %
73 05-06-2017 00:00:00 17.975 C 34.7083 %
74 06-06-2017 00:00:00 16.04667 C 23.7250 %
75 07-06-2017 00:00:00 14.48333 C 20.5500 %
Sensor: Nr:Datum:Temp:Feuchte:
Aussen-T/F 76 08-06-2017 00:00:00 19.25 C 21.2917 %
77 09-06-2017 00:00:00 18.0925 C 23.5250 %
78 10-06-2017 00:00:00 19.44 C 25.5417 %
79 11-06-2017 00:00:00 21.575 C 23.5750 %
80 12-06-2017 00:00:00 22.1675 C 20.1333 %
81 13-06-2017 00:00:00 19.81833 C 20.2667 %
82 14-06-2017 00:00:00 20.985 C 24.1917 %
83 15-06-2017 00:00:00 22.28333 C 21.9500 %
84 16-06-2017 00:00:00 20.18667 C 20.0000 %
85 17-06-2017 00:00:00 18.07917 C 20.4667 %
86 18-06-2017 00:00:00 23.58667 C 21.1333 %
87 19-06-2017 00:00:00 24.0825 C 23.3000 %
88 20-06-2017 00:00:00 25.57083 C 21.0333 %
89 21-06-2017 00:00:00 27.36167 C 20.0000 %
90 22-06-2017 00:00:00 24.04083 C 25.6833 %
91 23-06-2017 00:00:00 23.645 C 21.6583 %
92 24-06-2017 00:00:00 21.56417 C 21.1667 %
93 25-06-2017 00:00:00 20.95 C 20.0000 %
94 26-06-2017 00:00:00 23.18333 C 20.0000 %
95 27-06-2017 00:00:00 19.20417 C 25.8000 %
96 28-06-2017 00:00:00 20.19167 C 37.8250 %
97 29-06-2017 00:00:00 18.5125 C 27.5083 %
98 30-06-2017 00:00:00 18.34833 C 22.5167 %
99 01-07-2017 00:00:00 16.22083 C 30.4250 %
100 02-07-2017 00:00:00 16.92 C 32.0250 %
Sensor: Nr:Datum:Temp:Feuchte:
Aussen-T/F 101 03-07-2017 00:00:00 18.83333 C 27.3833 %
102 04-07-2017 00:00:00 21.9375 C 21.4833 %
103 05-07-2017 00:00:00 23.425 C 23.6833 %
104 06-07-2017 00:00:00 22.78417 C 24.7917 %
105 07-07-2017 00:00:00 24.54667 C 34.9667 %
106 08-07-2017 00:00:00 24.04167 C 22.1750 %
107 09-07-2017 00:00:00 23.87667 C 21.6750 %
108 10-07-2017 00:00:00 19.995 C 36.4250 %
109 11-07-2017 00:00:00 19.97417 C 25.9167 %
110 12-07-2017 00:00:00 17.8025 C 27.7583 %
111 13-07-2017 00:00:00 17.10583 C 27.2083 %
112 14-07-2017 00:00:00 16.94333 C 24.9917 %
113 15-07-2017 00:00:00 17.56583 C 24.2833 %
114 16-07-2017 00:00:00 19.83833 C 21.7500 %
115 17-07-2017 00:00:00 22.11583 C 25.7917 %
116 18-07-2017 00:00:00 23.18917 C 26.1500 %
117 19-07-2017 00:00:00 24.29083 C 22.7083 %
118 20-07-2017 00:00:00 22.56083 C 28.0583 %
119 21-07-2017 00:00:00 21.25917 C 21.7417 %
120 22-07-2017 00:00:00 22.86083 C 31.7667 %
121 23-07-2017 00:00:00 19.16417 C 32.9917 %
122 24-07-2017 00:00:00 15.17 C 34.9083 %
123 25-07-2017 00:00:00 14.17917 C 53.8250 %
124 26-07-2017 00:00:00 17.7925 C 34.8833 %
125 27-07-2017 00:00:00 19.165 C 34.9917 %
Sensor: Nr:Datum:Temp:Feuchte:
Aussen-T/F 126 28-07-2017 00:00:00 17.4625 C 30.7500 %
127 29-07-2017 00:00:00 20.93333 C 25.8500 %
128 30-07-2017 00:00:00 23.44917 C 24.9833 %
129 31-07-2017 00:00:00 21.3325 C 25.8250 %
130 01-08-2017 00:00:00 20.18333 C 47.5000 %
131 02-08-2017 00:00:00 22.01833 C 35.3417 %
132 03-08-2017 00:00:00 21.82833 C 28.1250 %
133 04-08-2017 00:00:00 21.0775 C 24.1917 %
134 05-08-2017 00:00:00 19.94833 C 23.8417 %
135 06-08-2017 00:00:00 18.32583 C 25.1000 %
136 07-08-2017 00:00:00 17.93417 C 26.7083 %
137 08-08-2017 00:00:00 17.9375 C 27.5583 %
138 09-08-2017 00:00:00 18.1525 C 23.5583 %
139 10-08-2017 00:00:00 15.35 C 47.5833 %
140 11-08-2017 00:00:00 14.705 C 51.5167 %
141 12-08-2017 00:00:00 15.305 C 40.2750 %
142 13-08-2017 00:00:00 18.60917 C 28.7333 %
143 14-08-2017 00:00:00 18.56167 C 33.7917 %
144 15-08-2017 00:00:00 18.83833 C 38.5333 %
145 16-08-2017 00:00:00 19.97167 C 37.3917 %
146 17-08-2017 00:00:00 19.57167 C 33.3667 %
147 18-08-2017 00:00:00 18.17417 C 43.5167 %
148 19-08-2017 00:00:00 14.47417 C 43.3667 %
149 20-08-2017 00:00:00 14.925 C 30.8417 %
150 21-08-2017 00:00:00 16.3575 C 28.8917 %
Sensor: Nr:Datum:Temp:Feuchte:
Aussen-T/F 151 22-08-2017 00:00:00 16.08833 C 31.8500 %
152 23-08-2017 00:00:00 17.92583 C 30.8917 %
153 24-08-2017 00:00:00 19.9075 C 26.1917 %
154 25-08-2017 00:00:00 18.30833 C 37.3750 %
155 26-08-2017 00:00:00 20.88833 C 44.3167 %
156 27-08-2017 00:00:00 19.63083 C 34.5250 %
157 28-08-2017 00:00:00 19.4775 C 30.1667 %
158 29-08-2017 00:00:00 20.03667 C 34.9500 %
159 30-08-2017 00:00:00 20.91167 C 31.6750 %
160 31-08-2017 00:00:00 17.32857 C 27.5210 %
161 01-09-2017 00:00:00 14.1 C 34.5083 %
162 02-09-2017 00:00:00 14.51417 C 34.0667 %
163 03-09-2017 00:00:00 12.90417 C 31.6750 %
164 04-09-2017 00:00:00 13.94167 C 34.8750 %
165 05-09-2017 00:00:00 17.87 C 36.6833 %
166 06-09-2017 00:00:00 17.47083 C 25.8083 %
167 07-09-2017 00:00:00 15.90083 C 21.1083 %
168 08-09-2017 00:00:00 15.99583 C 20.6583 %
169 09-09-2017 00:00:00 14.54 C 39.9417 %
170 10-09-2017 00:00:00 13.27583 C 43.1833 %
171 11-09-2017 00:00:00 14.27083 C 26.4083 %
172 12-09-2017 00:00:00 14.32583 C 26.1417 %
173 13-09-2017 00:00:00 13.965 C 38.8333 %
174 14-09-2017 00:00:00 11.75417 C 39.2750 %
175 15-09-2017 00:00:00 12.5175 C 33.8750 %
Sensor: Nr:Datum:Temp:Feuchte:
Aussen-T/F 176 16-09-2017 00:00:00 10.11333 C 40.9500 %
177 17-09-2017 00:00:00 9.67 C 51.4833 %
178 18-09-2017 00:00:00 10.46 C 46.2417 %
179 19-09-2017 00:00:00 11.76 C 32.8500 %
180 20-09-2017 00:00:00 11.29583 C 42.5167 %
181 21-09-2017 00:00:00 10.49 C 44.7417 %
182 22-09-2017 00:00:00 11.12417 C 43.8917 %
183 23-09-2017 00:00:00 13.495 C 40.1917 %
184 24-09-2017 00:00:00 12.475 C 44.1417 %
185 25-09-2017 00:00:00 12.56583 C 44.0250 %
186 26-09-2017 00:00:00 13.27167 C 41.8333 %
187 27-09-2017 00:00:00 13.05083 C 43.9333 %
188 28-09-2017 00:00:00 14.64667 C 44.6000 %
189 29-09-2017 00:00:00 17.38667 C 38.5083 %
190 30-09-2017 00:00:00 14.205 C 48.5667 %
191 01-10-2017 00:00:00 10.23667 C 56.3000 %
192 02-10-2017 00:00:00 13.38833 C 43.6167 %
193 03-10-2017 00:00:00 12.20667 C 42.3667 %
194 04-10-2017 00:00:00 11.05583 C 31.0333 %
195 05-10-2017 00:00:00 12.92833 C 21.9667 %
196 06-10-2017 00:00:00 9.4 C 33.6250 %
197 07-10-2017 00:00:00 9.55083 C 31.6583 %
198 08-10-2017 00:00:00 11.81833 C 41.5417 %
199 09-10-2017 00:00:00 10.9925 C 47.1583 %
200 10-10-2017 00:00:00 12.88917 C 31.8167 %
Sensor: Nr:Datum:Temp:Feuchte:
Aussen-T/F 201 11-10-2017 00:00:00 13.19167 C 31.2083 %
202 12-10-2017 00:00:00 13.13667 C 36.6500 %
203 13-10-2017 00:00:00 13.9275 C 38.7583 %
204 14-10-2017 00:00:00 12.47167 C 50.0167 %
205 15-10-2017 00:00:00 11.94833 C 54.6750 %
206 16-10-2017 00:00:00 12.63333 C 51.4833 %
207 17-10-2017 00:00:00 12.20667 C 52.4250 %
208 18-10-2017 00:00:00 11.85333 C 50.4167 %
209 19-10-2017 00:00:00 11.0025 C 50.7750 %
210 20-10-2017 00:00:00 11.63697 C 37.7479 %
211 21-10-2017 00:00:00 11.28083 C 38.1917 %
212 22-10-2017 00:00:00 10.28417 C 24.4167 %
213 23-10-2017 00:00:00 10.42417 C 23.7667 %
214 24-10-2017 00:00:00 12.76333 C 33.7917 %
215 25-10-2017 00:00:00 15.1425 C 27.6500 %
216 26-10-2017 00:00:00 13.17917 C 29.2667 %
217 27-10-2017 00:00:00 10.80833 C 33.6167 %
218 28-10-2017 00:00:00 10.09833 C 24.5250 %
219 29-10-2017 00:00:00 10.1184 C 26.6160 %
220 30-10-2017 00:00:00 6.43917 C 30.2667 %
221 31-10-2017 00:00:00 7.06917 C 27.1250 %
222 01-11-2017 00:00:00 7.99917 C 24.8000 %
223 02-11-2017 00:00:00 7.76917 C 32.9583 %
224 03-11-2017 00:00:00 6.735 C 45.5833 %
225 04-11-2017 00:00:00 7.89167 C 53.2917 %
Sensor: Nr:Datum:Temp:Feuchte:
Aussen-T/F 226 05-11-2017 00:00:00 8.26167 C 46.6500 %
227 06-11-2017 00:00:00 5.14 C 33.5917 %
228 07-11-2017 00:00:00 4.24333 C 45.0833 %
229 08-11-2017 00:00:00 6.0575 C 55.0333 %
230 09-11-2017 00:00:00 7.38917 C 46.1583 %
231 10-11-2017 00:00:00 6.65917 C 26.9667 %
232 11-11-2017 00:00:00 5.63583 C 40.7000 %
233 12-11-2017 00:00:00 3.91583 C 58.4500 %
234 13-11-2017 00:00:00 4.73833 C 41.6917 %
235 14-11-2017 00:00:00 3.73417 C 47.8500 %
236 15-11-2017 00:00:00 6.5375 C 27.1083 %
237 16-11-2017 00:00:00 4.27833 C 39.8500 %
238 17-11-2017 00:00:00 5.2975 C 48.8250 %
239 18-11-2017 00:00:00 2.87083 C 39.8833 %
240 19-11-2017 00:00:00 4.78583 C 32.4167 %
241 20-11-2017 00:00:00 4.46917 C 31.8667 %
242 21-11-2017 00:00:00 8.65667 C 28.5833 %
243 22-11-2017 00:00:00 7.285 C 30.5250 %
244 23-11-2017 00:00:00 8.5175 C 46.0583 %
245 24-11-2017 00:00:00 9.68 C 41.3083 %
246 25-11-2017 00:00:00 4.5475 C 53.6583 %
247 26-11-2017 00:00:00 2.92583 C 28.8917 %
248 27-11-2017 00:00:00 4.8625 C 21.2917 %
249 28-11-2017 00:00:00 3.22667 C 51.1000 %
250 29-11-2017 00:00:00 2.265 C 55.6667 %
Sensor: Nr:Datum:Temp:Feuchte:
Aussen-T/F 251 30-11-2017 00:00:00 1.60417 C 52.1417 %
252 01-12-2017 00:00:00 -0.2175 C 65.1167 %
253 02-12-2017 00:00:00 0.44833 C 41.3833 %
254 03-12-2017 00:00:00 -0.00667 C 31.2250 %
255 04-12-2017 00:00:00 2.29 C 46.3167 %
256 05-12-2017 00:00:00 3.6025 C 38.3333 %
257 06-12-2017 00:00:00 5.19833 C 24.6583 %
258 07-12-2017 00:00:00 4.21333 C 22.9083 %
259 08-12-2017 00:00:00 2.61083 C 31.9250 %
260 09-12-2017 00:00:00 0.24417 C 20.0083 %
261 10-12-2017 00:00:00 1.39167 C 28.5667 %
262 11-12-2017 00:00:00 4.91083 C 48.9333 %
263 12-12-2017 00:00:00 2.8125 C 21.0417 %
264 13-12-2017 00:00:00 2.70083 C 32.0833 %
265 14-12-2017 00:00:00 3.58417 C 33.7083 %
266 15-12-2017 00:00:00 2.05167 C 59.1500 %
267 16-12-2017 00:00:00 2.14667 C 54.8167 %
268 17-12-2017 00:00:00 2.22583 C 28.7000 %
269 18-12-2017 00:00:00 0.71333 C 56.1333 %
270 19-12-2017 00:00:00 2.67 C 67.9667 %
271 20-12-2017 00:00:00 4.95083 C 67.4833 %
272 21-12-2017 00:00:00 6.82667 C 61.0083 %
273 22-12-2017 00:00:00 8.10417 C 67.4917 %
274 23-12-2017 00:00:00 8.1975 C 39.8417 %
275 24-12-2017 00:00:00 8.37583 C 20.1083 %
Sensor: Nr:Datum:Temp:Feuchte:
Aussen-T/F 276 25-12-2017 00:00:00 6.34167 C 20.0583 %
277 26-12-2017 00:00:00 3.55917 C 38.0083 %
278 27-12-2017 00:00:00 4.2 C 40.9333 %
279 28-12-2017 00:00:00 2.28083 C 30.6667 %
280 29-12-2017 00:00:00 1.6 C 29.8333 %
281 30-12-2017 00:00:00 6.22583 C 44.3250 %
282 31-12-2017 00:00:00 12.09667 C 23.3583 %
283 01-01-2018 00:00:00 7.035 C 28.9500 %
284 02-01-2018 00:00:00 5.395 C 28.4083 %
285 03-01-2018 00:00:00 7.40667 C 26.8250 %
286 04-01-2018 00:00:00 7.375 C 35.2167 %
287 05-01-2018 00:00:00 7.45583 C 34.5250 %
288 06-01-2018 00:00:00 5.4075 C 71.1333 %
289 07-01-2018 00:00:00 4.365 C 39.4167 %
290 08-01-2018 00:00:00 3.86417 C 21.1167 %
291 09-01-2018 00:00:00 4.01083 C 35.8167 %
292 10-01-2018 00:00:00 5.88833 C 39.9000 %
293 11-01-2018 00:00:00 6.29167 C 52.8750 %
294 12-01-2018 00:00:00 5.70083 C 50.0167 %
295 13-01-2018 00:00:00 4.70917 C 38.6750 %
296 14-01-2018 00:00:00 2.06917 C 25.5583 %
297 15-01-2018 00:00:00 2.675 C 35.7000 %
298 16-01-2018 00:00:00 5.00167 C 27.7500 %
299 17-01-2018 00:00:00 2.35 C 27.4500 %
300 18-01-2018 00:00:00 4.8775 C 25.4667 %
Sensor: Nr:Datum:Temp:Feuchte:
Aussen-T/F 301 19-01-2018 00:00:00 2.92583 C 27.3750 %
302 20-01-2018 00:00:00 2.10833 C 38.1000 %
303 21-01-2018 00:00:00 1.73917 C 43.8167 %
304 22-01-2018 00:00:00 4.38583 C 45.1083 %
305 23-01-2018 00:00:00 6.65593 C 27.4831 %
306 24-01-2018 00:00:00 10.79316 C 24.5470 %
307 25-01-2018 00:00:00 9.13917 C 43.9750 %
308 26-01-2018 00:00:00 5.89167 C 56.7333 %
309 27-01-2018 00:00:00 4.26583 C 45.6667 %
310 28-01-2018 00:00:00 6.63917 C 22.5333 %
311 29-01-2018 00:00:00 9.275 C 22.7417 %
312 30-01-2018 00:00:00 4.25333 C 35.1167 %
313 31-01-2018 00:00:00 6.62917 C 32.6500 %
314 01-02-2018 00:00:00 2.0675 C 36.1083 %
315 02-02-2018 00:00:00 2.36417 C 31.6667 %
316 03-02-2018 00:00:00 2.65042 C 30.2269 %
317 04-02-2018 00:00:00 0.38667 C 29.6333 %
318 05-02-2018 00:00:00 -0.98583 C 20.2500 %
319 06-02-2018 00:00:00 -1.55167 C 25.9583 %
320 07-02-2018 00:00:00 -0.79667 C 32.3833 %
321 08-02-2018 00:00:00 -3.34333 C 28.9667 %
322 09-02-2018 00:00:00 -2.8975 C 36.1833 %
323 10-02-2018 00:00:00 1.41833 C 24.0167 %
324 11-02-2018 00:00:00 2.22 C 26.3667 %
325 12-02-2018 00:00:00 1.25083 C 34.8917 %
Sensor: Nr:Datum:Temp:Feuchte:
Aussen-T/F 326 13-02-2018 00:00:00 -1.44 C 29.8417 %
327 14-02-2018 00:00:00 -3.14333 C 28.8667 %
328 15-02-2018 00:00:00 0.80417 C 40.6583 %
329 16-02-2018 00:00:00 0.98667 C 60.1667 %
330 17-02-2018 00:00:00 -0.55 C 48.8833 %
331 18-02-2018 00:00:00 -2.16917 C 38.4250 %
332 19-02-2018 00:00:00 0.37083 C 35.6500 %
333 20-02-2018 00:00:00 -0.54083 C 33.3417 %
334 21-02-2018 00:00:00 -0.04917 C 22.5333 %
335 22-02-2018 00:00:00 -1.265 C 21.2167 %
336 23-02-2018 00:00:00 -2.0175 C 20.0000 %
337 24-02-2018 00:00:00 -2.72667 C 20.0000 %
338 25-02-2018 00:00:00 -3.74417 C 20.0000 %
339 26-02-2018 00:00:00 -5.06167 C 20.0000 %
340 27-02-2018 00:00:00 -7.2225 C 20.3500 %
341 28-02-2018 00:00:00 -7.98333 C 20.0000 %
342 01-03-2018 00:00:00 -3.74917 C 20.0000 %
343 02-03-2018 00:00:00 -2.59083 C 20.0917 %
344 03-03-2018 00:00:00 -0.72083 C 28.3583 %
345 04-03-2018 00:00:00 3.2 C 37.8833 %
346 05-03-2018 00:00:00 5.22833 C 42.3583 %
347 06-03-2018 00:00:00 4.25 C 40.7750 %
348 07-03-2018 00:00:00 4.89167 C 43.0333 %
349 08-03-2018 00:00:00 5.66417 C 23.5833 %
350 09-03-2018 00:00:00 4.83667 C 41.9500 %
Sensor: Nr:Datum:Temp:Feuchte:
Aussen-T/F 351 10-03-2018 00:00:00 9.51333 C 45.7833 %
352 11-03-2018 00:00:00 9.60833 C 40.1667 %
353 12-03-2018 00:00:00 9.04083 C 37.0250 %
354 13-03-2018 00:00:00 6.84083 C 24.1083 %
355 14-03-2018 00:00:00 6.32917 C 26.1667 %
356 15-03-2018 00:00:00 5.73833 C 33.0750 %
357 16-03-2018 00:00:00 7.00917 C 47.9667 %
358 17-03-2018 00:00:00 -0.93917 C 20.2583 %
359 18-03-2018 00:00:00 -2.1675 C 20.0000 %
360 19-03-2018 00:00:00 -0.63417 C 20.0000 %
361 20-03-2018 00:00:00 -0.4175 C 20.0167 %
362 21-03-2018 00:00:00 0.5225 C 24.8500 %
363 22-03-2018 00:00:00 2.45417 C 30.2000 %
364 23-03-2018 00:00:00 5.83583 C 38.3250 %
365 24-03-2018 00:00:00 4.74917 C 35.3167 %
366 25-03-2018 00:00:00 4.60522 C 30.4870 %
367 26-03-2018 00:00:00 7.34167 C 20.0250 %
368 27-03-2018 00:00:00 5.52083 C 29.7083 %
369 28-03-2018 00:00:00 8.02667 C 36.4167 %
370 29-03-2018 00:00:00 6.93667 C 20.9833 %
371 30-03-2018 00:00:00 6.38833 C 34.0000 %
372 31-03-2018 00:00:00 7.84583 C 39.4917 %
373 01-04-2018 00:00:00 7.26083 C 20.4250 %
374 02-04-2018 00:00:00 8.7875 C 27.6500 %
375 03-04-2018 00:00:00 13.26583 C 20.0000 %
Sensor: Nr:Datum:Temp:Feuchte:
Aussen-T/F 376 04-04-2018 00:00:00 10.6625 C 24.3500 %
377 05-04-2018 00:00:00 7.485 C 30.3417 %
378 06-04-2018 00:00:00 6.66833 C 35.5583 %
379 07-04-2018 00:00:00 12.16083 C 22.7583 %
380 08-04-2018 00:00:00 14.75333 C 22.3333 %
381 09-04-2018 00:00:00 13.84583 C 24.6917 %
382 10-04-2018 00:00:00 12.68 C 28.0833 %
383 11-04-2018 00:00:00 11.99333 C 34.9833 %
384 12-04-2018 00:00:00 13.34833 C 37.0500 %
385 13-04-2018 00:00:00 9.9075 C 32.0833 %
386 14-04-2018 00:00:00 12.74 C 36.2167 %
387 15-04-2018 00:00:00 14.41667 C 27.2750 %
388 16-04-2018 00:00:00 13.76083 C 31.1917 %
389 17-04-2018 00:00:00 14.02167 C 29.2083 %
390 18-04-2018 00:00:00 15.74583 C 26.0333 %
391 19-04-2018 00:00:00 17.22083 C 26.6000 %
392 20-04-2018 00:00:00 17.00083 C 24.1667 %
393 21-04-2018 00:00:00 18.43667 C 23.5750 %
394 22-04-2018 00:00:00 18.55417 C 25.1083 %
395 23-04-2018 00:00:00 18.66417 C 20.2833 %
396 24-04-2018 00:00:00 14.27333 C 24.2167 %
397 25-04-2018 00:00:00 13.4125 C 21.6750 %
398 26-04-2018 00:00:00 11.21 C 20.0000 %
399 27-04-2018 00:00:00 12.55083 C 22.6167 %
400 28-04-2018 00:00:00 12.6075 C 23.1000 %
Sensor: Nr:Datum:Temp:Feuchte:
Aussen-T/F 401 29-04-2018 00:00:00 14.48167 C 29.9583 %
402 30-04-2018 00:00:00 13.82167 C 24.6083 %
403 01-05-2018 00:00:00 9.82667 C 20.0500 %
404 02-05-2018 00:00:00 9.81083 C 27.0250 %
405 03-05-2018 00:00:00 12.9575 C 23.3250 %
406 04-05-2018 00:00:00 13.49833 C 21.9583 %
407 05-05-2018 00:00:00 15.83583 C 20.0667 %
408 06-05-2018 00:00:00 17.25 C 20.1167 %
409 07-05-2018 00:00:00 17.88167 C 21.1000 %
410 08-05-2018 00:00:00 18.43583 C 22.6667 %
411 09-05-2018 00:00:00 17.19333 C 22.2583 %
412 10-05-2018 00:00:00 14.13917 C 25.9500 %
413 11-05-2018 00:00:00 14.92083 C 27.9167 %
414 12-05-2018 00:00:00 17.0825 C 28.2750 %
415 13-05-2018 00:00:00 14.3425 C 37.0500 %
416 14-05-2018 00:00:00 17.16333 C 35.6750 %
417 15-05-2018 00:00:00 16.0375 C 27.9417 %
418 16-05-2018 00:00:00 15.7475 C 27.4000 %
419 17-05-2018 00:00:00 14.55667 C 23.4833 %
420 18-05-2018 00:00:00 13.17083 C 21.1083 %
421 19-05-2018 00:00:00 13.845 C 23.5250 %
422 20-05-2018 00:00:00 14.06917 C 31.8333 %
423 21-05-2018 00:00:00 17.55333 C 27.4333 %
424 22-05-2018 00:00:00 17.09833 C 29.9833 %
425 23-05-2018 00:00:00 17.23083 C 36.1833 %
Sensor: Nr:Datum:Temp:Feuchte:
Aussen-T/F 426 24-05-2018 00:00:00 17.22083 C 27.4917 %
427 25-05-2018 00:00:00 20.19417 C 26.8083 %
428 26-05-2018 00:00:00 21.1325 C 26.3667 %
429 27-05-2018 00:00:00 20.4375 C 27.6917 %
430 28-05-2018 00:00:00 21.70917 C 33.5833 %
431 29-05-2018 00:00:00 20.88333 C 27.1500 %
432 30-05-2018 00:00:00 21.6725 C 28.2333 %
433 31-05-2018 00:00:00 23.08167 C 20.2750 %
434 01-06-2018 00:00:00 19.3725 C 29.3667 %
435 02-06-2018 00:00:00 19.64917 C 23.6750 %
436 03-06-2018 00:00:00 20.04167 C 24.8250 %
437 04-06-2018 00:00:00 21.5125 C 24.5417 %
438 05-06-2018 00:00:00 21.2475 C 22.2500 %
439 06-06-2018 00:00:00 21.6775 C 24.0000 %
440 07-06-2018 00:00:00 21.58667 C 22.6167 %
441 08-06-2018 00:00:00 21.40167 C 24.3000 %
442 09-06-2018 00:00:00 22.3959 C 23.5984 %
443 10-06-2018 00:00:00 21.64333 C 33.3000 %
444 11-06-2018 00:00:00 19.07083 C 41.7083 %
445 12-06-2018 00:00:00 16.44167 C 37.5250 %
446 13-06-2018 00:00:00 15.1 C 22.7000 %
447 14-06-2018 00:00:00 15.48083 C 30.2917 %
448 15-06-2018 00:00:00 17.9025 C 35.7250 %
449 16-06-2018 00:00:00 20.2775 C 26.1583 %
450 17-06-2018 00:00:00 18.42583 C 22.8083 %
Sensor: Nr:Datum:Temp:Feuchte:
Aussen-T/F 451 18-06-2018 00:00:00 18.235 C 21.9750 %
452 19-06-2018 00:00:00 19.13333 C 25.5583 %
453 20-06-2018 00:00:00 23.4825 C 24.4667 %
454 21-06-2018 00:00:00 18.58 C 22.6500 %
455 22-06-2018 00:00:00 14.12167 C 20.0000 %
456 23-06-2018 00:00:00 14.19167 C 21.2750 %
457 24-06-2018 00:00:00 16.46667 C 22.7833 %
458 25-06-2018 00:00:00 17.57167 C 21.5583 %
459 26-06-2018 00:00:00 18.34083 C 24.8583 %
460 27-06-2018 00:00:00 19.81083 C 24.3333 %
461 28-06-2018 00:00:00 21.28417 C 20.6000 %
462 29-06-2018 00:00:00 24.82417 C 20.0000 %
463 30-06-2018 00:00:00 22.8375 C 20.4583 %
464 01-07-2018 00:00:00 21.52333 C 20.0000 %
465 02-07-2018 00:00:00 21.06583 C 20.0000 %
466 03-07-2018 00:00:00 21.34917 C 20.0000 %
467 04-07-2018 00:00:00 19.00917 C 27.2667 %
468 05-07-2018 00:00:00 19.70667 C 33.6083 %
469 06-07-2018 00:00:00 20.57333 C 25.0417 %
470 07-07-2018 00:00:00 21.3521 C 23.5630 %
471 08-07-2018 00:00:00 20.38417 C 21.0583 %
472 09-07-2018 00:00:00 20.71083 C 21.4167 %
473 10-07-2018 00:00:00 17.5975 C 22.4000 %
474 11-07-2018 00:00:00 16.2875 C 33.6667 %
475 12-07-2018 00:00:00 19.71583 C 32.5000 %
Sensor: Nr:Datum:Temp:Feuchte:
Aussen-T/F 476 13-07-2018 00:00:00 20.13 C 24.9667 %
477 14-07-2018 00:00:00 22.01333 C 24.7500 %
478 15-07-2018 00:00:00 22.10833 C 22.6333 %
479 16-07-2018 00:00:00 23.10667 C 21.7167 %
480 17-07-2018 00:00:00 21.59583 C 20.3583 %
481 18-07-2018 00:00:00 20.9475 C 22.7500 %
482 19-07-2018 00:00:00 21.47667 C 21.5833 %
483 20-07-2018 00:00:00 21.81583 C 20.1917 %
484 21-07-2018 00:00:00 20.94083 C 22.6750 %
485 22-07-2018 00:00:00 22.115 C 25.1500 %
486 23-07-2018 00:00:00 22.98917 C 21.2167 %
487 24-07-2018 00:00:00 24.11417 C 22.5833 %
488 25-07-2018 00:00:00 25.90417 C 20.1583 %
489 26-07-2018 00:00:00 27.54333 C 20.0167 %
490 27-07-2018 00:00:00 26.46167 C 20.0000 %
491 28-07-2018 00:00:00 22.24 C 22.3250 %
492 29-07-2018 00:00:00 23.87667 C 23.3500 %
493 30-07-2018 00:00:00 24.435 C 20.3250 %
494 31-07-2018 00:00:00 25.8025 C 21.1500 %
495 01-08-2018 00:00:00 20.68583 C 32.5500 %
496 02-08-2018 00:00:00 24.12 C 31.7333 %
497 03-08-2018 00:00:00 26.79583 C 20.9083 %
498 04-08-2018 00:00:00 26.84 C 20.0667 %
499 05-08-2018 00:00:00 25.5025 C 20.1667 %
500 06-08-2018 00:00:00 24.4075 C 20.1500 %
Sensor: Nr:Datum:Temp:Feuchte:
Aussen-T/F 501 07-08-2018 00:00:00 26.99333 C 20.0000 %
502 08-08-2018 00:00:00 25.83667 C 20.0000 %
503 09-08-2018 00:00:00 20.8725 C 26.6583 %
504 10-08-2018 00:00:00 18.73667 C 20.8917 %
505 11-08-2018 00:00:00 18.76667 C 20.0000 %
506 12-08-2018 00:00:00 18.38667 C 21.9833 %
507 13-08-2018 00:00:00 17.82083 C 28.9750 %
508 14-08-2018 00:00:00 18.755 C 28.1167 %
509 15-08-2018 00:00:00 19.59583 C 29.0833 %
510 16-08-2018 00:00:00 20.84333 C 28.0000 %
511 17-08-2018 00:00:00 20.11583 C 22.3500 %
512 18-08-2018 00:00:00 19.2675 C 26.3417 %
513 19-08-2018 00:00:00 20.68667 C 23.5250 %
514 20-08-2018 00:00:00 21.20333 C 20.6833 %
515 21-08-2018 00:00:00 22.2425 C 24.3417 %
516 22-08-2018 00:00:00 23.51417 C 22.7667 %
517 23-08-2018 00:00:00 23.22 C 23.0167 %
518 24-08-2018 00:00:00 19.31833 C 20.6583 %
519 25-08-2018 00:00:00 14.65417 C 21.6083 %
520 26-08-2018 00:00:00 13.95083 C 28.0000 %
521 27-08-2018 00:00:00 18.20917 C 20.3667 %
522 28-08-2018 00:00:00 18.39833 C 20.7167 %
523 29-08-2018 00:00:00 17.005 C 30.8917 %
524 30-08-2018 00:00:00 17.4125 C 25.9167 %
525 31-08-2018 00:00:00 15.33167 C 23.6000 %
Sensor: Nr:Datum:Temp:Feuchte:
Aussen-T/F 526 01-09-2018 00:00:00 14.445 C 26.6667 %
527 02-09-2018 00:00:00 14.24833 C 24.8000 %
528 03-09-2018 00:00:00 18.13417 C 22.9917 %
529 04-09-2018 00:00:00 20.0425 C 27.0167 %
530 05-09-2018 00:00:00 20.69 C 25.3083 %
531 06-09-2018 00:00:00 18.0925 C 32.7583 %
532 07-09-2018 00:00:00 15.6675 C 33.8500 %
533 08-09-2018 00:00:00 13.5425 C 30.5333 %
534 09-09-2018 00:00:00 16.80833 C 23.2500 %
535 10-09-2018 00:00:00 17.5025 C 23.9000 %
536 11-09-2018 00:00:00 18.86667 C 26.0333 %
537 12-09-2018 00:00:00 19.03167 C 24.0083 %
538 13-09-2018 00:00:00 16.5775 C 25.7417 %
539 14-09-2018 00:00:00 17.1375 C 25.2000 %
540 15-09-2018 00:00:00 15.17 C 21.0833 %
541 16-09-2018 00:00:00 14.51 C 27.7833 %
542 17-09-2018 00:00:00 16.24583 C 25.3583 %
543 18-09-2018 00:00:00 18.72833 C 26.0000 %
544 19-09-2018 00:00:00 20.545 C 25.3250 %
545 20-09-2018 00:00:00 19.08833 C 26.8417 %
546 21-09-2018 00:00:00 15.91167 C 24.5750 %
547 22-09-2018 00:00:00 12.6825 C 25.6333 %
548 23-09-2018 00:00:00 12.18083 C 47.2250 %
549 24-09-2018 00:00:00 9.66 C 36.3583 %
550 25-09-2018 00:00:00 8.06417 C 42.7083 %
Sensor: Nr:Datum:Temp:Feuchte:
Aussen-T/F 551 26-09-2018 00:00:00 8.5625 C 35.2583 %
552 27-09-2018 00:00:00 10.55833 C 35.5667 %
553 28-09-2018 00:00:00 9.67833 C 43.7167 %
554 29-09-2018 00:00:00 7.75083 C 41.1250 %
555 30-09-2018 00:00:00 7.2475 C 35.9250 %
556 01-10-2018 00:00:00 9.41583 C 29.7833 %
557 02-10-2018 00:00:00 8.87917 C 33.7167 %
558 03-10-2018 00:00:00 11.93917 C 34.0750 %
559 04-10-2018 00:00:00 9.37167 C 38.3000 %
560 05-10-2018 00:00:00 10.05917 C 42.4917 %
561 06-10-2018 00:00:00 12.08583 C 44.5417 %
562 07-10-2018 00:00:00 12.625 C 37.2750 %
563 08-10-2018 00:00:00 9.9775 C 39.4833 %
564 09-10-2018 00:00:00 11.14583 C 44.1500 %
565 10-10-2018 00:00:00 12.71667 C 45.8500 %
566 11-10-2018 00:00:00 13.6775 C 40.8667 %
567 12-10-2018 00:00:00 15.05417 C 38.8667 %
568 13-10-2018 00:00:00 14.68833 C 38.8250 %
569 14-10-2018 00:00:00 13.92083 C 36.1000 %
570 15-10-2018 00:00:00 12.87417 C 37.7167 %
571 16-10-2018 00:00:00 12.0325 C 38.6083 %
572 17-10-2018 00:00:00 12.01333 C 41.5083 %
573 18-10-2018 00:00:00 13.73917 C 38.0333 %
574 19-10-2018 00:00:00 11.66417 C 37.7167 %
575 20-10-2018 00:00:00 10.57167 C 36.9583 %
Sensor: Nr:Datum:Temp:Feuchte:
Aussen-T/F 576 21-10-2018 00:00:00 6.7725 C 44.7500 %
577 22-10-2018 00:00:00 7.16833 C 43.7083 %
578 23-10-2018 00:00:00 8.68 C 39.8083 %
579 24-10-2018 00:00:00 13.58167 C 33.8333 %
580 25-10-2018 00:00:00 12.74667 C 31.1083 %
581 26-10-2018 00:00:00 9.95417 C 28.9917 %
582 27-10-2018 00:00:00 5.7925 C 48.4000 %
583 28-10-2018 00:00:00 5.2 C 33.7840 %
584 29-10-2018 00:00:00 5.97083 C 33.6667 %
585 30-10-2018 00:00:00 5.80583 C 46.3667 %
586 31-10-2018 00:00:00 6.87167 C 39.3333 %
587 01-11-2018 00:00:00 5.49083 C 58.1333 %
588 02-11-2018 00:00:00 8.22333 C 53.4750 %
589 03-11-2018 00:00:00 3.10583 C 60.6667 %
590 04-11-2018 00:00:00 6.64167 C 47.4000 %
591 05-11-2018 00:00:00 9.7725 C 45.3417 %
592 06-11-2018 00:00:00 7.78167 C 57.6917 %
593 07-11-2018 00:00:00 8.4 C 54.3917 %
594 08-11-2018 00:00:00 9.7 C 41.1583 %
595 09-11-2018 00:00:00 8.83167 C 49.0500 %
596 10-11-2018 00:00:00 11.32 C 42.0250 %
597 11-11-2018 00:00:00 11.46583 C 47.7500 %
598 12-11-2018 00:00:00 13.07917 C 44.0417 %
599 13-11-2018 00:00:00 9.75583 C 50.0167 %
600 14-11-2018 00:00:00 5.56917 C 61.4000 %
Sensor: Nr:Datum:Temp:Feuchte:
Aussen-T/F 601 15-11-2018 00:00:00 6.72833 C 38.5000 %
602 16-11-2018 00:00:00 5.12667 C 41.4000 %
603 17-11-2018 00:00:00 1.785 C 48.8667 %
604 18-11-2018 00:00:00 0.80333 C 30.7417 %
605 19-11-2018 00:00:00 2.95833 C 26.3167 %
606 20-11-2018 00:00:00 2.95167 C 25.6167 %
607 21-11-2018 00:00:00 1.93 C 37.9750 %
608 22-11-2018 00:00:00 2.22833 C 39.2750 %
609 23-11-2018 00:00:00 -0.8425 C 54.2583 %
610 24-11-2018 00:00:00 4.05833 C 58.0917 %
611 25-11-2018 00:00:00 5.29 C 56.7917 %
612 26-11-2018 00:00:00 6.09333 C 35.8583 %
613 27-11-2018 00:00:00 3.6075 C 30.9583 %
614 28-11-2018 00:00:00 2.97583 C 45.6917 %
615 29-11-2018 00:00:00 4.98333 C 47.6917 %
616 30-11-2018 00:00:00 6.67167 C 48.6583 %
617 01-12-2018 00:00:00 6.67417 C 47.9750 %
618 02-12-2018 00:00:00 10.59167 C 45.4750 %
619 03-12-2018 00:00:00 11.02333 C 51.1333 %
620 04-12-2018 00:00:00 5.62 C 45.3833 %
621 05-12-2018 00:00:00 3.15546 C 56.8487 %
622 06-12-2018 00:00:00 9.21333 C 47.7750 %
623 07-12-2018 00:00:00 10.71583 C 33.9000 %
624 08-12-2018 00:00:00 7.28083 C 37.2333 %
625 09-12-2018 00:00:00 7.285 C 37.6917 %
Sensor: Nr:Datum:Temp:Feuchte:
Aussen-T/F 626 10-12-2018 00:00:00 3.9825 C 44.3833 %
627 11-12-2018 00:00:00 2.87417 C 51.3500 %
628 12-12-2018 00:00:00 2.0375 C 58.1583 %
629 13-12-2018 00:00:00 0.49 C 37.0417 %
630 14-12-2018 00:00:00 0.48 C 20.9833 %
631 15-12-2018 00:00:00 -0.09083 C 24.2083 %
632 16-12-2018 00:00:00 0.045 C 43.8833 %
633 17-12-2018 00:00:00 3.4775 C 51.8333 %
634 18-12-2018 00:00:00 4.1675 C 41.5083 %
635 19-12-2018 00:00:00 5.75 C 37.3000 %
636 20-12-2018 00:00:00 6.87083 C 39.0583 %
637 21-12-2018 00:00:00 10.1725 C 34.4750 %
638 22-12-2018 00:00:00 9.26167 C 35.0083 %
639 23-12-2018 00:00:00 7.89333 C 46.8500 %
640 24-12-2018 00:00:00 4.10333 C 44.5000 %
641 25-12-2018 00:00:00 1.0625 C 49.8500 %
642 26-12-2018 00:00:00 -1.61083 C 52.7667 %
643 27-12-2018 00:00:00 -0.68583 C 57.2917 %
644 28-12-2018 00:00:00 -0.61667 C 51.7667 %
645 29-12-2018 00:00:00 2.0175 C 45.4833 %
646 30-12-2018 00:00:00 6.73917 C 37.6417 %
647 31-12-2018 00:00:00 6.84917 C 56.5417 %
648 01-01-2019 00:00:00 6.345 C 45.5833 %
649 02-01-2019 00:00:00 2.72417 C 34.2083 %
650 03-01-2019 00:00:00 1.28167 C 47.5833 %
Sensor: Nr:Datum:Temp:Feuchte:
Aussen-T/F 651 04-01-2019 00:00:00 2.41333 C 45.7833 %
652 05-01-2019 00:00:00 5.14417 C 47.4583 %
653 06-01-2019 00:00:00 5.0725 C 44.3083 %
654 07-01-2019 00:00:00 4.8875 C 41.5500 %
655 08-01-2019 00:00:00 5.74917 C 36.7000 %
656 09-01-2019 00:00:00 3.05083 C 34.6917 %
657 10-01-2019 00:00:00 1.36 C 32.5417 %
658 11-01-2019 00:00:00 2.05417 C 54.0417 %
659 12-01-2019 00:00:00 5.01833 C 46.3583 %
660 13-01-2019 00:00:00 6.9225 C 47.7417 %
661 14-01-2019 00:00:00 4.06833 C 43.5667 %
662 15-01-2019 00:00:00 4.06833 C 40.0333 %
663 16-01-2019 00:00:00 4.52583 C 35.3417 %
664 17-01-2019 00:00:00 4.27167 C 37.9583 %
665 18-01-2019 00:00:00 -0.2025 C 49.3250 %
666 19-01-2019 00:00:00 -3.87667 C 48.1333 %
667 20-01-2019 00:00:00 -6.33 C 47.2250 %
668 21-01-2019 00:00:00 -7.505 C 46.8917 %
669 22-01-2019 00:00:00 -5.97917 C 44.1750 %
670 23-01-2019 00:00:00 -2.435 C 39.5667 %
671 24-01-2019 00:00:00 -2.72417 C 26.7667 %
672 25-01-2019 00:00:00 -0.50917 C 39.3333 %
673 26-01-2019 00:00:00 3.62167 C 45.9417 %
674 27-01-2019 00:00:00 4.94833 C 43.1917 %
675 28-01-2019 00:00:00 2.2025 C 45.2417 %
Sensor: Nr:Datum:Temp:Feuchte:
Aussen-T/F 676 29-01-2019 00:00:00 0.865 C 44.1667 %
677 30-01-2019 00:00:00 -0.46833 C 49.8250 %
678 31-01-2019 00:00:00 -1.03333 C 52.2750 %
679 01-02-2019 00:00:00 0.72167 C 56.8333 %
680 02-02-2019 00:00:00 1.59587 C 62.5950 %
681 03-02-2019 00:00:00 1.86583 C 40.0750 %
682 04-02-2019 00:00:00 0.99417 C 40.5833 %
683 05-02-2019 00:00:00 3.66167 C 30.5917 %
684 06-02-2019 00:00:00 0.09417 C 46.8417 %
685 07-02-2019 00:00:00 4.26083 C 38.9917 %
686 08-02-2019 00:00:00 6.77417 C 31.6250 %
687 09-02-2019 00:00:00 8.02083 C 28.8667 %
688 10-02-2019 00:00:00 7.15083 C 39.6167 %
689 11-02-2019 00:00:00 4.03667 C 38.3917 %
690 12-02-2019 00:00:00 3.01917 C 38.2083 %
691 13-02-2019 00:00:00 0.96333 C 46.8167 %
692 14-02-2019 00:00:00 -0.46667 C 51.0250 %
693 15-02-2019 00:00:00 0.9925 C 45.0667 %
694 16-02-2019 00:00:00 1.9325 C 47.3750 %
695 17-02-2019 00:00:00 2.17333 C 49.1333 %
696 18-02-2019 00:00:00 2.31167 C 43.0500 %
697 19-02-2019 00:00:00 4.89 C 40.9750 %
698 20-02-2019 00:00:00 3.7725 C 45.5000 %
699 21-02-2019 00:00:00 5.655 C 46.3667 %
700 22-02-2019 00:00:00 9.27167 C 39.5167 %
Sensor: Nr:Datum:Temp:Feuchte:
Aussen-T/F 701 23-02-2019 00:00:00 4.58167 C 33.2583 %
702 24-02-2019 00:00:00 2.29833 C 32.9417 %
703 25-02-2019 00:00:00 3.65667 C 31.8250 %
704 26-02-2019 00:00:00 4.75583 C 37.6333 %
705 27-02-2019 00:00:00 5.17417 C 38.9250 %
706 28-02-2019 00:00:00 8.185 C 29.8833 %
707 01-03-2019 00:00:00 7.515 C 43.8250 %
708 02-03-2019 00:00:00 8.29333 C 34.1417 %
709 03-03-2019 00:00:00 10.72417 C 28.1417 %
710 04-03-2019 00:00:00 9.1575 C 27.8167 %
711 05-03-2019 00:00:00 6.32167 C 30.8917 %
712 06-03-2019 00:00:00 9.5125 C 32.3667 %
713 07-03-2019 00:00:00 9.61917 C 28.3833 %
714 08-03-2019 00:00:00 7.73167 C 28.8250 %
715 09-03-2019 00:00:00 10.01667 C 26.3333 %
716 10-03-2019 00:00:00 9.11083 C 30.1417 %
717 11-03-2019 00:00:00 4.19667 C 30.2417 %
718 12-03-2019 00:00:00 6.18083 C 27.8583 %
719 13-03-2019 00:00:00 5.6775 C 31.5250 %
720 14-03-2019 00:00:00 6.3325 C 38.0083 %
721 15-03-2019 00:00:00 9.61417 C 37.6917 %
722 16-03-2019 00:00:00 9.76833 C 35.9667 %
723 17-03-2019 00:00:00 8.19083 C 26.8333 %
724 18-03-2019 00:00:00 4.3225 C 36.6583 %
725 19-03-2019 00:00:00 3.115 C 40.3583 %
Sensor: Nr:Datum:Temp:Feuchte:
Aussen-T/F 726 20-03-2019 00:00:00 4.81417 C 37.4250 %
727 21-03-2019 00:00:00 6.76333 C 35.7167 %
728 22-03-2019 00:00:00 8.43083 C 34.0750 %
729 23-03-2019 00:00:00 5.40167 C 40.0083 %
730 24-03-2019 00:00:00 5.90583 C 38.2167 %
731 25-03-2019 00:00:00 4.41583 C 37.7583 %
732 26-03-2019 00:00:00 6.33417 C 32.9583 %
733 27-03-2019 00:00:00 6.36583 C 35.3083 %
734 28-03-2019 00:00:00 6.955 C 36.2417 %
735 29-03-2019 00:00:00 8.44167 C 38.7750 %
736 30-03-2019 00:00:00 10.07583 C 34.1833 %
737 31-03-2019 00:00:00 9.90957 C 33.8174 %
738 01-04-2019 00:00:00 8.9475 C 32.5750 %
739 02-04-2019 00:00:00 10.5425 C 29.3083 %
740 03-04-2019 00:00:00 7.865 C 38.6750 %
741 04-04-2019 00:00:00 5.56833 C 48.7000 %
742 05-04-2019 00:00:00 5.95417 C 48.0167 %
743 06-04-2019 00:00:00 9.88333 C 42.1917 %
744 07-04-2019 00:00:00 11.50833 C 36.8000 %
745 08-04-2019 00:00:00 12.34417 C 33.9167 %
746 09-04-2019 00:00:00 12.00333 C 40.7333 %
747 10-04-2019 00:00:00 10.585 C 23.8417 %
748 11-04-2019 00:00:00 6.52917 C 25.0583 %
749 12-04-2019 00:00:00 4.68167 C 20.0000 %
750 13-04-2019 00:00:00 3.585 C 24.4167 %
Sensor: Nr:Datum:Temp:Feuchte:
Aussen-T/F 751 14-04-2019 00:00:00 5.23833 C 34.7917 %
752 15-04-2019 00:00:00 10.29167 C 25.8000 %
753 16-04-2019 00:00:00 10.91333 C 23.2000 %
754 17-04-2019 00:00:00 12.4 C 35.6083 %
755 18-04-2019 00:00:00 13.7675 C 28.5500 %
756 19-04-2019 00:00:00 14.94917 C 24.5083 %
757 20-04-2019 00:00:00 14.60167 C 27.5833 %
758 21-04-2019 00:00:00 15.24333 C 24.6417 %
759 22-04-2019 00:00:00 14.7825 C 27.5667 %
760 23-04-2019 00:00:00 15.12667 C 20.1083 %
761 24-04-2019 00:00:00 15.10083 C 30.7083 %
762 25-04-2019 00:00:00 13.2425 C 38.0667 %
763 26-04-2019 00:00:00 11.8 C 32.0000 %
764 27-04-2019 00:00:00 9.01583 C 40.3667 %
765 28-04-2019 00:00:00 8.43333 C 30.9750 %
766 29-04-2019 00:00:00 8.62417 C 38.4083 %
767 30-04-2019 00:00:00 13.94583 C 26.0833 %
768 01-05-2019 00:00:00 13.03833 C 29.5000 %
769 02-05-2019 00:00:00 12.08333 C 31.3667 %
770 03-05-2019 00:00:00 11.20833 C 25.1500 %
771 04-05-2019 00:00:00 6.17583 C 33.4500 %
772 05-05-2019 00:00:00 6.66333 C 32.0417 %
773 06-05-2019 00:00:00 7.6075 C 30.6583 %
774 07-05-2019 00:00:00 9.645 C 28.6167 %
775 08-05-2019 00:00:00 9.105 C 38.9750 %
Sensor: Nr:Datum:Temp:Feuchte:
Aussen-T/F 776 09-05-2019 00:00:00 11.085 C 36.9583 %
777 10-05-2019 00:00:00 12.44538 C 33.3866 %
778 11-05-2019 00:00:00 9.52833 C 47.9417 %
779 12-05-2019 00:00:00 9.4 C 31.3083 %
780 13-05-2019 00:00:00 9.985 C 30.9083 %
781 14-05-2019 00:00:00 9.66333 C 26.4333 %
782 15-05-2019 00:00:00 10.57083 C 24.3500 %
783 16-05-2019 00:00:00 10.61167 C 23.0917 %
784 17-05-2019 00:00:00 11.4775 C 39.7250 %
785 18-05-2019 00:00:00 14.67167 C 39.3500 %
786 19-05-2019 00:00:00 15.91083 C 38.3750 %
787 20-05-2019 00:00:00 13.655 C 37.8667 %
788 21-05-2019 00:00:00 11.88167 C 45.6167 %
789 22-05-2019 00:00:00 13.2875 C 33.7833 %
790 23-05-2019 00:00:00 15.22667 C 33.1417 %
791 24-05-2019 00:00:00 17.24 C 28.7500 %
792 25-05-2019 00:00:00 15.89917 C 22.8167 %
793 26-05-2019 00:00:00 16.26667 C 29.2667 %
794 27-05-2019 00:00:00 14.66667 C 40.5417 %
795 28-05-2019 00:00:00 14.29917 C 38.6250 %
796 29-05-2019 00:00:00 15.28667 C 25.9000 %
797 30-05-2019 00:00:00 15.82833 C 28.8250 %
798 31-05-2019 00:00:00 19.45583 C 30.4167 %
799 01-06-2019 00:00:00 20.21917 C 30.3583 %
800 02-06-2019 00:00:00 22.16417 C 30.0500 %
Sensor: Nr:Datum:Temp:Feuchte:
Aussen-T/F 801 03-06-2019 00:00:00 21.1475 C 27.1667 %
802 04-06-2019 00:00:00 21.80333 C 28.3333 %
803 05-06-2019 00:00:00 23.57917 C 22.7833 %
804 06-06-2019 00:00:00 16.14167 C 28.3667 %
805 07-06-2019 00:00:00 16.10083 C 29.5250 %
806 08-06-2019 00:00:00 16.40917 C 20.2667 %
807 09-06-2019 00:00:00 16.72333 C 27.7667 %
808 10-06-2019 00:00:00 19.705 C 23.4750 %
809 11-06-2019 00:00:00 17.38 C 32.4667 %
810 12-06-2019 00:00:00 16.405 C 33.2917 %
811 13-06-2019 00:00:00 16.27917 C 34.4333 %
812 14-06-2019 00:00:00 18.17 C 35.6583 %
813 15-06-2019 00:00:00 19.72583 C 33.0250 %
814 16-06-2019 00:00:00 19.94417 C 24.9167 %
815 17-06-2019 00:00:00 19.5125 C 29.1250 %
816 18-06-2019 00:00:00 22.02333 C 27.1333 %
817 19-06-2019 00:00:00 22.62583 C 27.6917 %
818 20-06-2019 00:00:00 20 C 28.0167 %
819 21-06-2019 00:00:00 19.3425 C 27.3333 %
820 22-06-2019 00:00:00 19.82667 C 26.6167 %
821 23-06-2019 00:00:00 22.3125 C 27.3750 %
822 24-06-2019 00:00:00 24.96167 C 26.2167 %
823 25-06-2019 00:00:00 26.83333 C 24.5583 %
824 26-06-2019 00:00:00 27.635 C 23.0833 %
825 27-06-2019 00:00:00 25.18917 C 20.6083 %
Sensor: Nr:Datum:Temp:Feuchte:
Aussen-T/F 826 28-06-2019 00:00:00 22.44833 C 23.4333 %
827 29-06-2019 00:00:00 24.38417 C 22.1750 %
828 30-06-2019 00:00:00 26.0575 C 22.2333 %
829 01-07-2019 00:00:00 23.3825 C 20.0000 %
830 02-07-2019 00:00:00 19.63333 C 21.8667 %
831 03-07-2019 00:00:00 18.14583 C 22.9833 %
832 04-07-2019 00:00:00 18.95917 C 21.7583 %
833 05-07-2019 00:00:00 21.28 C 20.0000 %
834 06-07-2019 00:00:00 21.86 C 21.2917 %
835 07-07-2019 00:00:00 17.9975 C 24.5833 %
836 08-07-2019 00:00:00 14.77583 C 24.3917 %
837 09-07-2019 00:00:00 15.65583 C 24.6667 %
838 10-07-2019 00:00:00 17.64083 C 24.2083 %
839 11-07-2019 00:00:00 17.65083 C 31.2583 %
840 12-07-2019 00:00:00 17.16583 C 43.6333 %
841 13-07-2019 00:00:00 17.9575 C 34.1250 %
842 14-07-2019 00:00:00 17.12917 C 26.6667 %
843 15-07-2019 00:00:00 16.56667 C 21.0917 %
844 16-07-2019 00:00:00 16.26 C 28.0333 %
845 17-07-2019 00:00:00 17.56833 C 29.2083 %
846 18-07-2019 00:00:00 19.38333 C 28.1917 %
847 19-07-2019 00:00:00 20.12667 C 31.9750 %
848 20-07-2019 00:00:00 21.81667 C 30.3083 %
849 21-07-2019 00:00:00 22.37333 C 25.8833 %
850 22-07-2019 00:00:00 22.7225 C 26.2833 %
Sensor: Nr:Datum:Temp:Feuchte:
Aussen-T/F 851 23-07-2019 00:00:00 25.34083 C 25.5333 %
852 24-07-2019 00:00:00 27.1975 C 24.2750 %
853 25-07-2019 00:00:00 28.90167 C 21.7333 %
854 26-07-2019 00:00:00 27.54417 C 21.2500 %
855 27-07-2019 00:00:00 23.4375 C 26.6833 %
856 28-07-2019 00:00:00 19.93083 C 38.1333 %
857 29-07-2019 00:00:00 21.45583 C 29.3333 %
858 30-07-2019 00:00:00 22.35833 C 26.7167 %
859 31-07-2019 00:00:00 21.48417 C 20.5333 %
860 01-08-2019 00:00:00 19.83417 C 22.9750 %
861 02-08-2019 00:00:00 20.8775 C 22.8500 %
862 03-08-2019 00:00:00 20.77167 C 24.6333 %
863 04-08-2019 00:00:00 21.00667 C 28.3000 %
864 05-08-2019 00:00:00 22.56833 C 24.9167 %
865 06-08-2019 00:00:00 20.0075 C 30.3333 %
866 07-08-2019 00:00:00 19.10167 C 41.3833 %
867 08-08-2019 00:00:00 20.55667 C 30.6417 %
868 09-08-2019 00:00:00 19.73833 C 39.4583 %
869 10-08-2019 00:00:00 20.72917 C 37.6833 %
870 11-08-2019 00:00:00 17.03333 C 35.9000 %
871 12-08-2019 00:00:00 16.51583 C 38.9833 %
872 13-08-2019 00:00:00 16.10833 C 35.2833 %
873 14-08-2019 00:00:00 16.6875 C 34.0417 %
874 15-08-2019 00:00:00 17.20583 C 40.0250 %
875 16-08-2019 00:00:00 17.84 C 34.2250 %
Sensor: Nr:Datum:Temp:Feuchte:
Aussen-T/F 876 17-08-2019 00:00:00 17.89333 C 38.0750 %
877 18-08-2019 00:00:00 19.71833 C 44.5000 %
878 19-08-2019 00:00:00 18.45167 C 33.8417 %
879 20-08-2019 00:00:00 15.91167 C 33.3250 %
880 21-08-2019 00:00:00 16.52917 C 33.4750 %
881 22-08-2019 00:00:00 17.12333 C 32.3667 %
882 23-08-2019 00:00:00 18.31667 C 31.5083 %
883 24-08-2019 00:00:00 19.36333 C 30.9833 %
884 25-08-2019 00:00:00 21.54583 C 29.8917 %
885 26-08-2019 00:00:00 22.17 C 33.4833 %
886 27-08-2019 00:00:00 22.70333 C 35.1667 %
887 28-08-2019 00:00:00 23.4425 C 30.4583 %
888 29-08-2019 00:00:00 22.20333 C 28.3583 %
889 30-08-2019 00:00:00 21.07 C 29.2583 %
890 31-08-2019 00:00:00 21.975 C 30.7583 %
891 01-09-2019 00:00:00 18.8525 C 26.8333 %
892 02-09-2019 00:00:00 15.49333 C 28.2000 %
893 03-09-2019 00:00:00 15.72917 C 28.0833 %
894 04-09-2019 00:00:00 16.9525 C 33.9667 %
895 05-09-2019 00:00:00 15.59 C 26.2917 %
896 06-09-2019 00:00:00 13.58917 C 31.1917 %
897 07-09-2019 00:00:00 12.6975 C 39.5000 %
898 08-09-2019 00:00:00 12.7439 C 48.5935 %
899 09-09-2019 00:00:00 15.23733 C 38.6667 %
900 10-09-2019 00:00:00 12.20486 C 22.8264 %
Sensor: Nr:Datum:Temp:Feuchte:
Aussen-T/F 901 11-09-2019 00:00:00 13.35556 C 20.8472 %
902 12-09-2019 00:00:00 19.325 C 20.0000 %
903 13-09-2019 00:00:00 17.86806 C 20.1111 %
904 14-09-2019 00:00:00 15.93333 C 22.4375 %
905 15-09-2019 00:00:00 15.65694 C 21.2778 %
906 16-09-2019 00:00:00 16.21389 C 20.0000 %
907 17-09-2019 00:00:00 15.87708 C 20.0000 %
908 18-09-2019 00:00:00 11.47361 C 20.7917 %
909 19-09-2019 00:00:00 10.53333 C 21.8194 %
910 20-09-2019 00:00:00 10.80486 C 20.8472 %
911 21-09-2019 00:00:00 12.45278 C 20.6597 %
912 22-09-2019 00:00:00 14.78542 C 20.7500 %
913 23-09-2019 00:00:00 16.6875 C 22.1528 %
914 24-09-2019 00:00:00 13.94306 C 26.6319 %
915 25-09-2019 00:00:00 15.31806 C 25.0417 %
916 26-09-2019 00:00:00 16.10903 C 26.0000 %
917 27-09-2019 00:00:00 16.23333 C 23.7708 %
918 28-09-2019 00:00:00 15.40208 C 22.5833 %
919 29-09-2019 00:00:00 16.05972 C 21.6597 %
920 30-09-2019 00:00:00 15.48194 C 21.1319 %
921 01-10-2019 00:00:00 15.84375 C 23.4931 %
922 02-10-2019 00:00:00 12.57569 C 23.6111 %
923 03-10-2019 00:00:00 9.35625 C 27.6944 %
924 04-10-2019 00:00:00 10.03681 C 31.8403 %
925 05-10-2019 00:00:00 10.32986 C 26.5903 %
Sensor: Nr:Datum:Temp:Feuchte:
Aussen-T/F 926 06-10-2019 00:00:00 7.85764 C 34.1250 %
927 07-10-2019 00:00:00 9.80764 C 31.8819 %
928 08-10-2019 00:00:00 12.35833 C 31.0694 %
929 09-10-2019 00:00:00 11.56667 C 27.7431 %
930 10-10-2019 00:00:00 11.49097 C 26.2153 %
931 11-10-2019 00:00:00 12.41458 C 28.8194 %
932 12-10-2019 00:00:00 13.21111 C 29.6875 %
933 13-10-2019 00:00:00 16.35417 C 28.4722 %
934 14-10-2019 00:00:00 15.8125 C 27.6528 %
935 15-10-2019 00:00:00 13.94028 C 29.8611 %
936 16-10-2019 00:00:00 12.42153 C 29.2917 %
937 17-10-2019 00:00:00 14.32708 C 27.4167 %
938 18-10-2019 00:00:00 12.3125 C 29.7292 %
939 19-10-2019 00:00:00 12.78194 C 28.2083 %
940 20-10-2019 00:00:00 13.0875 C 34.7778 %
941 21-10-2019 00:00:00 13.30486 C 29.2014 %
942 22-10-2019 00:00:00 11.45 C 27.8819 %
943 23-10-2019 00:00:00 10.68403 C 31.1181 %
944 24-10-2019 00:00:00 13.85208 C 27.9236 %
945 25-10-2019 00:00:00 13.1625 C 24.9444 %
946 26-10-2019 00:00:00 12.72639 C 27.5417 %
947 27-10-2019 00:00:00 9.68467 C 30.8733 %
948 28-10-2019 00:00:00 5.91597 C 35.2014 %
949 29-10-2019 00:00:00 6.21181 C 29.3264 %
950 30-10-2019 00:00:00 2.93333 C 34.5347 %
Sensor: Nr:Datum:Temp:Feuchte:
Aussen-T/F 951 31-10-2019 00:00:00 1.41875 C 34.8333 %
952 01-11-2019 00:00:00 5.44792 C 36.7292 %
953 02-11-2019 00:00:00 12.8125 C 27.6458 %
954 03-11-2019 00:00:00 11.45069 C 29.7639 %
955 04-11-2019 00:00:00 9.88542 C 30.2153 %
956 05-11-2019 00:00:00 9.25069 C 27.4306 %
957 06-11-2019 00:00:00 8.33542 C 34.7014 %
958 07-11-2019 00:00:00 7.30278 C 33.8333 %
959 08-11-2019 00:00:00 4.29028 C 37.7153 %
960 09-11-2019 00:00:00 4.26806 C 33.1111 %
961 10-11-2019 00:00:00 2.51319 C 34.9861 %
962 11-11-2019 00:00:00 4.2 C 27.4792 %
963 12-11-2019 00:00:00 5.41667 C 25.4792 %
964 13-11-2019 00:00:00 4.93472 C 22.9861 %
965 14-11-2019 00:00:00 4.86042 C 26.9861 %
966 15-11-2019 00:00:00 4.08472 C 26.3333 %
967 16-11-2019 00:00:00 1.19444 C 38.8125 %
968 17-11-2019 00:00:00 2.39861 C 40.2708 %
969 18-11-2019 00:00:00 3.51667 C 36.2847 %
970 19-11-2019 00:00:00 3.06736 C 36.5833 %
971 20-11-2019 00:00:00 0.75972 C 37.8403 %
972 21-11-2019 00:00:00 1.18951 C 39.3846 %
973 22-11-2019 00:00:00 3.65972 C 35.6806 %
974 23-11-2019 00:00:00 4.64653 C 33.3889 %
975 24-11-2019 00:00:00 1.99861 C 41.4722 %
Sensor: Nr:Datum:Temp:Feuchte:
Aussen-T/F 976 25-11-2019 00:00:00 4.16319 C 39.3681 %
977 26-11-2019 00:00:00 7.75903 C 34.8472 %
978 27-11-2019 00:00:00 9.72083 C 30.6875 %
979 28-11-2019 00:00:00 10.55833 C 22.1319 %
980 29-11-2019 00:00:00 5.75486 C 30.7639 %
981 30-11-2019 00:00:00 0.48194 C 42.0972 %
982 01-12-2019 00:00:00 1.14236 C 33.0139 %
983 02-12-2019 00:00:00 1.20556 C 36.2986 %
984 03-12-2019 00:00:00 3.97431 C 39.2292 %
985 04-12-2019 00:00:00 0.41389 C 41.6111 %
986 05-12-2019 00:00:00 -2.03194 C 42.0972 %
987 06-12-2019 00:00:00 2.6125 C 34.4722 %
988 07-12-2019 00:00:00 8.20694 C 27.7292 %
989 08-12-2019 00:00:00 9.69931 C 24.2778 %
990 09-12-2019 00:00:00 7.09444 C 23.9722 %
991 10-12-2019 00:00:00 2.37361 C 34.0000 %
992 11-12-2019 00:00:00 3.12569 C 39.3056 %
993 12-12-2019 00:00:00 2.64931 C 37.2500 %
994 13-12-2019 00:00:00 3.25278 C 34.0069 %
995 14-12-2019 00:00:00 6.22222 C 28.0625 %
996 15-12-2019 00:00:00 7.24792 C 30.8958 %
997 16-12-2019 00:00:00 7.47361 C 39.2986 %
998 17-12-2019 00:00:00 9.69514 C 31.9653 %
999 18-12-2019 00:00:00 6.95069 C 37.4792 %
1000 19-12-2019 00:00:00 4.60972 C 40.5417 %
Sensor: Nr:Datum:Temp:Feuchte:
Aussen-T/F 1001 20-12-2019 00:00:00 6.87778 C 35.7847 %
1002 21-12-2019 00:00:00 6.42778 C 32.4306 %
1003 22-12-2019 00:00:00 7.57917 C 31.0556 %
1004 23-12-2019 00:00:00 7.34861 C 28.6111 %
1005 24-12-2019 00:00:00 7.20278 C 29.9097 %
1006 25-12-2019 00:00:00 6.91944 C 32.8333 %
1007 26-12-2019 00:00:00 4.25278 C 40.6250 %
1008 27-12-2019 00:00:00 4.41181 C 36.8819 %
1009 28-12-2019 00:00:00 -1.22431 C 42.5000 %
1010 29-12-2019 00:00:00 -2.07708 C 39.8819 %
1011 30-12-2019 00:00:00 -1.99931 C 39.1319 %
1012 31-12-2019 00:00:00 -0.41736 C 39.5556 %
1013 01-01-2020 00:00:00 -0.10764 C 41.3403 %
1014 02-01-2020 00:00:00 0.98958 C 39.7014 %
1015 03-01-2020 00:00:00 7.00972 C 33.4653 %
1016 04-01-2020 00:00:00 4.78264 C 32.5903 %
1017 05-01-2020 00:00:00 5.21806 C 35.8750 %
1018 06-01-2020 00:00:00 2.11667 C 38.1667 %
1019 07-01-2020 00:00:00 4.43611 C 34.6944 %
1020 08-01-2020 00:00:00 7.71389 C 34.4167 %
1021 09-01-2020 00:00:00 10.33542 C 35.2292 %
1022 10-01-2020 00:00:00 8.27917 C 30.8958 %
1023 11-01-2020 00:00:00 3.61806 C 33.7639 %
1024 12-01-2020 00:00:00 4.57083 C 30.3889 %
1025 13-01-2020 00:00:00 5.88472 C 35.0903 %
Sensor: Nr:Datum:Temp:Feuchte:
Aussen-T/F 1026 14-01-2020 00:00:00 9.28264 C 24.1181 %
1027 15-01-2020 00:00:00 10.27083 C 23.7500 %
1028 16-01-2020 00:00:00 7.07569 C 40.1944 %
1029 17-01-2020 00:00:00 5.27986 C 39.1944 %
1030 18-01-2020 00:00:00 3.79028 C 32.6042 %
1031 19-01-2020 00:00:00 3.01389 C 40.8194 %
1032 20-01-2020 00:00:00 1.64861 C 39.3889 %
1033 21-01-2020 00:00:00 -2.675 C 44.7986 %
1034 22-01-2020 00:00:00 -1.95347 C 44.7153 %
1035 23-01-2020 00:00:00 0.53819 C 43.6458 %
1036 24-01-2020 00:00:00 0.81319 C 35.7222 %
1037 25-01-2020 00:00:00 1.99236 C 39.2014 %
1038 26-01-2020 00:00:00 2.13056 C 41.5625 %
1039 27-01-2020 00:00:00 5.48542 C 39.8264 %
1040 28-01-2020 00:00:00 5.07708 C 30.3750 %
1041 29-01-2020 00:00:00 4.20764 C 29.8611 %
1042 30-01-2020 00:00:00 7.57569 C 29.5694 %
1043 31-01-2020 00:00:00 12.86181 C 27.9167 %
1044 01-02-2020 00:00:00 11.16597 C 32.0972 %
1045 02-02-2020 00:00:00 9.925 C 31.1319 %
1046 03-02-2020 00:00:00 10.19236 C 29.5139 %
1047 04-02-2020 00:00:00 4.29514 C 36.4097 %
1048 05-02-2020 00:00:00 3.05069 C 37.1458 %
1049 06-02-2020 00:00:00 0.04514 C 42.7500 %
1050 07-02-2020 00:00:00 -0.30764 C 42.8264 %
Sensor: Nr:Datum:Temp:Feuchte:
Aussen-T/F 1051 08-02-2020 00:00:00 1.01389 C 43.0069 %
1052 09-02-2020 00:00:00 8.36458 C 32.5764 %
1053 10-02-2020 00:00:00 7.85 C 31.3611 %
1054 11-02-2020 00:00:00 5.29167 C 24.6597 %
1055 12-02-2020 00:00:00 4.32083 C 30.5972 %
1056 13-02-2020 00:00:00 3.32917 C 42.1250 %
1057 14-02-2020 00:00:00 5.46458 C 39.2639 %
1058 15-02-2020 00:00:00 5.89931 C 38.0278 %
1059 16-02-2020 00:00:00 14.44931 C 23.2431 %
1060 17-02-2020 00:00:00 8.25903 C 32.4167 %
1061 18-02-2020 00:00:00 6.89097 C 31.0347 %
1062 19-02-2020 00:00:00 5.73889 C 30.1875 %
1063 20-02-2020 00:00:00 7.7125 C 32.9722 %
1064 21-02-2020 00:00:00 4.71042 C 33.5972 %
1065 22-02-2020 00:00:00 7.67986 C 30.0347 %
1066 23-02-2020 00:00:00 10.01389 C 35.3403 %
1067 24-02-2020 00:00:00 7.74653 C 36.3194 %
1068 25-02-2020 00:00:00 8.81597 C 32.2778 %
1069 26-02-2020 00:00:00 4.37431 C 33.6806 %
1070 27-02-2020 00:00:00 2.22153 C 41.6806 %
1071 28-02-2020 00:00:00 3.52431 C 38.4514 %
1072 29-02-2020 00:00:00 8.60556 C 34.8889 %
1073 01-03-2020 00:00:00 7.15694 C 36.0000 %
1074 02-03-2020 00:00:00 5.99375 C 40.1667 %
1075 03-03-2020 00:00:00 4.26806 C 39.6458 %
Sensor: Nr:Datum:Temp:Feuchte:
Aussen-T/F 1076 04-03-2020 00:00:00 5.28958 C 37.5764 %
1077 05-03-2020 00:00:00 5.45764 C 43.0833 %
1078 06-03-2020 00:00:00 5.63958 C 40.4931 %
1079 07-03-2020 00:00:00 6.26458 C 33.7569 %
1080 08-03-2020 00:00:00 9.46458 C 32.2361 %
1081 09-03-2020 00:00:00 7.81875 C 35.4514 %
1082 10-03-2020 00:00:00 9.06181 C 39.4514 %
1083 11-03-2020 00:00:00 14.0375 C 35.2639 %
1084 12-03-2020 00:00:00 11.01597 C 30.3681 %
1085 13-03-2020 00:00:00 6.99236 C 33.4236 %
1086 14-03-2020 00:00:00 5.89028 C 38.1667 %
1087 15-03-2020 00:00:00 9.14653 C 32.2153 %
1088 16-03-2020 00:00:00 9.43264 C 35.6667 %
1089 17-03-2020 00:00:00 12.02708 C 33.7847 %
1090 18-03-2020 00:00:00 9.92639 C 36.2153 %
1091 19-03-2020 00:00:00 12.58194 C 32.0417 %
1092 20-03-2020 00:00:00 10.52657 C 36.2308 %
1093 21-03-2020 00:00:00 5.89653 C 34.6597 %
1094 22-03-2020 00:00:00 4.30139 C 28.5278 %
1095 23-03-2020 00:00:00 3.12292 C 27.0764 %
1096 24-03-2020 00:00:00 2.82431 C 27.8403 %
Sensor: Nr:Datum:Temp:Feuchte:
G-T/H 1 25-03-2017 00:00:00 10.76167 C 57.7333 %
2 26-03-2017 00:00:00 10.54783 C 58.5826 %
3 27-03-2017 00:00:00 10.2775 C 50.5417 %
4 28-03-2017 00:00:00 11.49667 C 53.5167 %
5 29-03-2017 00:00:00 12.4025 C 60.0000 %
6 30-03-2017 00:00:00 13.8 C 58.8333 %
7 31-03-2017 00:00:00 13.9 C 55.5083 %
8 01-04-2017 00:00:00 13.5225 C 61.1333 %
9 02-04-2017 00:00:00 13.045 C 62.0500 %
10 03-04-2017 00:00:00 12.37917 C 61.7583 %
11 04-04-2017 00:00:00 11.70917 C 61.7250 %
12 05-04-2017 00:00:00 11.2225 C 60.3000 %
13 06-04-2017 00:00:00 11.25083 C 61.8833 %
14 07-04-2017 00:00:00 11.30833 C 61.5667 %
15 08-04-2017 00:00:00 12.10917 C 64.3167 %
16 09-04-2017 00:00:00 11.93083 C 63.3250 %
17 10-04-2017 00:00:00 12.2625 C 64.3417 %
18 11-04-2017 00:00:00 11.93333 C 61.3750 %
19 12-04-2017 00:00:00 11.73417 C 62.1250 %
20 13-04-2017 00:00:00 12.4775 C 62.8750 %
21 14-04-2017 00:00:00 12.10583 C 60.6583 %
22 15-04-2017 00:00:00 11.93917 C 62.9917 %
23 16-04-2017 00:00:00 11.1475 C 62.5750 %
24 17-04-2017 00:00:00 10.5075 C 62.2583 %
25 18-04-2017 00:00:00 9.84833 C 61.1750 %
Sensor: Nr:Datum:Temp:Feuchte:
G-T/H 26 19-04-2017 00:00:00 9.13917 C 59.2667 %
27 20-04-2017 00:00:00 8.37167 C 53.2417 %
28 21-04-2017 00:00:00 9.44167 C 57.5750 %
29 22-04-2017 00:00:00 10.7925 C 61.3833 %
30 23-04-2017 00:00:00 10.56417 C 59.6333 %
31 24-04-2017 00:00:00 10.66583 C 57.9750 %
32 25-04-2017 00:00:00 11.07395 C 57.7143 %
33 26-04-2017 00:00:00 10.9975 C 52.8000 %
34 27-04-2017 00:00:00 10.80167 C 55.5250 %
35 28-04-2017 00:00:00 9.695 C 54.5000 %
36 29-04-2017 00:00:00 10.51083 C 59.0833 %
37 30-04-2017 00:00:00 11.60583 C 55.6167 %
38 01-05-2017 00:00:00 12.7 C 56.0000 %
39 02-05-2017 00:00:00 11.525 C 63.9432 %
40 03-05-2017 00:00:00 11.48417 C 65.4750 %
41 04-05-2017 00:00:00 12.02333 C 66.8667 %
42 05-05-2017 00:00:00 12.46583 C 66.8917 %
43 06-05-2017 00:00:00 12.505 C 65.2333 %
44 07-05-2017 00:00:00 13.83043 C 67.2696 %
45 08-05-2017 00:00:00 12.83417 C 66.4333 %
46 09-05-2017 00:00:00 12.20583 C 62.3250 %
47 10-05-2017 00:00:00 12.52917 C 54.6833 %
48 11-05-2017 00:00:00 13.12917 C 60.2667 %
49 12-05-2017 00:00:00 14.3375 C 64.2333 %
50 13-05-2017 00:00:00 14.86667 C 65.6583 %
Sensor: Nr:Datum:Temp:Feuchte:
G-T/H 51 14-05-2017 00:00:00 15.34083 C 65.8667 %
52 15-05-2017 00:00:00 16.35667 C 54.4250 %
53 16-05-2017 00:00:00 18.42417 C 50.3083 %
54 17-05-2017 00:00:00 19.76083 C 51.8500 %
55 18-05-2017 00:00:00 18.36833 C 59.9083 %
56 19-05-2017 00:00:00 16.6075 C 64.9333 %
57 20-05-2017 00:00:00 14.935 C 64.1833 %
58 21-05-2017 00:00:00 15.3875 C 58.0667 %
59 22-05-2017 00:00:00 16.8975 C 56.7000 %
60 23-05-2017 00:00:00 17.30167 C 60.5667 %
61 24-05-2017 00:00:00 17.77333 C 59.5750 %
62 25-05-2017 00:00:00 17.38 C 63.0583 %
63 26-05-2017 00:00:00 18.09583 C 61.1583 %
64 27-05-2017 00:00:00 17.95583 C 63.3917 %
65 28-05-2017 00:00:00 18.6625 C 65.0333 %
66 29-05-2017 00:00:00 22.53667 C 59.7333 %
67 30-05-2017 00:00:00 22.135 C 60.5250 %
68 31-05-2017 00:00:00 19.19583 C 54.8917 %
69 01-06-2017 00:00:00 19.02333 C 60.4250 %
70 02-06-2017 00:00:00 19.42667 C 64.1667 %
71 03-06-2017 00:00:00 18.96167 C 68.0500 %
72 04-06-2017 00:00:00 18.245 C 68.2333 %
73 05-06-2017 00:00:00 17.78167 C 63.8583 %
74 06-06-2017 00:00:00 17.53167 C 62.7417 %
75 07-06-2017 00:00:00 16.31 C 63.1083 %
Sensor: Nr:Datum:Temp:Feuchte:
G-T/H 76 08-06-2017 00:00:00 17.10583 C 63.0167 %
77 09-06-2017 00:00:00 17.65833 C 65.4167 %
78 10-06-2017 00:00:00 17.03667 C 64.8083 %
79 11-06-2017 00:00:00 17.98917 C 66.8667 %
80 12-06-2017 00:00:00 20.2225 C 51.9750 %
81 13-06-2017 00:00:00 19.605 C 52.3167 %
82 14-06-2017 00:00:00 20.2375 C 52.8333 %
83 15-06-2017 00:00:00 22.41083 C 52.1917 %
84 16-06-2017 00:00:00 21.05417 C 50.7750 %
85 17-06-2017 00:00:00 19.55083 C 56.9583 %
86 18-06-2017 00:00:00 19.47917 C 61.1333 %
87 19-06-2017 00:00:00 21.37083 C 53.8417 %
88 20-06-2017 00:00:00 23.81417 C 48.4333 %
89 21-06-2017 00:00:00 23.19167 C 55.3333 %
90 22-06-2017 00:00:00 24.54167 C 57.7417 %
91 23-06-2017 00:00:00 23.06 C 57.7583 %
92 24-06-2017 00:00:00 22.64 C 51.3500 %
93 25-06-2017 00:00:00 21.49083 C 54.8583 %
94 26-06-2017 00:00:00 21.5775 C 55.2833 %
95 27-06-2017 00:00:00 20.69417 C 59.6083 %
96 28-06-2017 00:00:00 19.86 C 64.0167 %
97 29-06-2017 00:00:00 19.49417 C 65.1083 %
98 30-06-2017 00:00:00 19.17167 C 60.7667 %
99 01-07-2017 00:00:00 18.81833 C 64.2833 %
100 02-07-2017 00:00:00 18.1925 C 66.6917 %
Sensor: Nr:Datum:Temp:Feuchte:
G-T/H 101 03-07-2017 00:00:00 19.315 C 56.5417 %
102 04-07-2017 00:00:00 20.50083 C 54.7667 %
103 05-07-2017 00:00:00 21.10917 C 57.5583 %
104 06-07-2017 00:00:00 21.4425 C 61.7000 %
105 07-07-2017 00:00:00 21.30333 C 64.3833 %
106 08-07-2017 00:00:00 22.9425 C 56.5250 %
107 09-07-2017 00:00:00 22.685 C 59.5417 %
108 10-07-2017 00:00:00 21.98167 C 63.7417 %
109 11-07-2017 00:00:00 21.20417 C 60.4000 %
110 12-07-2017 00:00:00 20.39167 C 63.4250 %
111 13-07-2017 00:00:00 18.97917 C 57.3833 %
112 14-07-2017 00:00:00 18.96417 C 57.4250 %
113 15-07-2017 00:00:00 18.67083 C 60.6333 %
114 16-07-2017 00:00:00 19.535 C 63.6583 %
115 17-07-2017 00:00:00 19.89917 C 65.6333 %
116 18-07-2017 00:00:00 21.48667 C 62.7583 %
117 19-07-2017 00:00:00 23.825 C 58.2333 %
118 20-07-2017 00:00:00 22.49083 C 62.1083 %
119 21-07-2017 00:00:00 21.79917 C 56.1083 %
120 22-07-2017 00:00:00 22.77167 C 60.8833 %
121 23-07-2017 00:00:00 20.45167 C 59.6000 %
122 24-07-2017 00:00:00 19.83667 C 60.9500 %
123 25-07-2017 00:00:00 18.2725 C 64.9333 %
124 26-07-2017 00:00:00 17.95417 C 67.3667 %
125 27-07-2017 00:00:00 18.53667 C 68.7167 %
Sensor: Nr:Datum:Temp:Feuchte:
G-T/H 126 28-07-2017 00:00:00 18.61833 C 68.6833 %
127 29-07-2017 00:00:00 19.14917 C 68.9333 %
128 30-07-2017 00:00:00 20.87667 C 66.4833 %
129 31-07-2017 00:00:00 21.91167 C 61.1500 %
130 01-08-2017 00:00:00 20.985 C 66.8500 %
131 02-08-2017 00:00:00 21.5925 C 67.6250 %
132 03-08-2017 00:00:00 22.08 C 67.0000 %
133 04-08-2017 00:00:00 21.2975 C 66.9500 %
134 05-08-2017 00:00:00 21.27333 C 64.2583 %
135 06-08-2017 00:00:00 20.1425 C 61.5500 %
136 07-08-2017 00:00:00 19.51083 C 54.8250 %
137 08-08-2017 00:00:00 19.4725 C 62.0000 %
138 09-08-2017 00:00:00 19.2825 C 61.9750 %
139 10-08-2017 00:00:00 18.88083 C 65.6083 %
140 11-08-2017 00:00:00 17.85167 C 68.4083 %
141 12-08-2017 00:00:00 17.38667 C 69.6917 %
142 13-08-2017 00:00:00 17.925 C 70.8917 %
143 14-08-2017 00:00:00 19.18583 C 69.3417 %
144 15-08-2017 00:00:00 19.95167 C 75.4000 %
145 16-08-2017 00:00:00 20.395 C 70.4750 %
146 17-08-2017 00:00:00 20.77833 C 67.9583 %
147 18-08-2017 00:00:00 20.07417 C 69.9500 %
148 19-08-2017 00:00:00 18.63167 C 65.2583 %
149 20-08-2017 00:00:00 18.18833 C 65.5833 %
150 21-08-2017 00:00:00 18.33833 C 61.8250 %
Sensor: Nr:Datum:Temp:Feuchte:
G-T/H 151 22-08-2017 00:00:00 18.3375 C 62.2833 %
152 23-08-2017 00:00:00 19.39 C 63.6250 %
153 24-08-2017 00:00:00 19.39667 C 66.6750 %
154 25-08-2017 00:00:00 19.01417 C 68.4583 %
155 26-08-2017 00:00:00 19.33833 C 70.7917 %
156 27-08-2017 00:00:00 19.525 C 71.7250 %
157 28-08-2017 00:00:00 20.30583 C 68.8833 %
158 29-08-2017 00:00:00 21.09333 C 67.8833 %
159 30-08-2017 00:00:00 20.41167 C 70.1917 %
160 31-08-2017 00:00:00 19.86975 C 70.1176 %
161 01-09-2017 00:00:00 18.04083 C 64.9250 %
162 02-09-2017 00:00:00 17.755 C 68.6500 %
163 03-09-2017 00:00:00 16.90667 C 68.1250 %
164 04-09-2017 00:00:00 16.00917 C 69.3750 %
165 05-09-2017 00:00:00 18.28917 C 72.6000 %
166 06-09-2017 00:00:00 18.70833 C 64.8917 %
167 07-09-2017 00:00:00 17.72833 C 62.5167 %
168 08-09-2017 00:00:00 17.6225 C 64.3417 %
169 09-09-2017 00:00:00 17.3775 C 67.9250 %
170 10-09-2017 00:00:00 16.50417 C 66.3083 %
171 11-09-2017 00:00:00 16.29333 C 68.5500 %
172 12-09-2017 00:00:00 16.13083 C 70.5250 %
173 13-09-2017 00:00:00 15.99917 C 71.1667 %
174 14-09-2017 00:00:00 15.7775 C 71.3250 %
175 15-09-2017 00:00:00 15.14 C 71.7083 %
Sensor: Nr:Datum:Temp:Feuchte:
G-T/H 176 16-09-2017 00:00:00 14.15 C 67.6833 %
177 17-09-2017 00:00:00 14.06833 C 69.8750 %
178 18-09-2017 00:00:00 13.68417 C 70.3917 %
179 19-09-2017 00:00:00 14.2875 C 73.3667 %
180 20-09-2017 00:00:00 14.18167 C 72.9250 %
181 21-09-2017 00:00:00 14.33333 C 68.9000 %
182 22-09-2017 00:00:00 14.20083 C 71.1333 %
183 23-09-2017 00:00:00 14.86583 C 71.6917 %
184 24-09-2017 00:00:00 13.5 C 74.4750 %
185 25-09-2017 00:00:00 14.49667 C 74.4000 %
186 26-09-2017 00:00:00 14.90833 C 74.1417 %
187 27-09-2017 00:00:00 15.24333 C 75.2000 %
188 28-09-2017 00:00:00 15.29833 C 75.7917 %
189 29-09-2017 00:00:00 16.4625 C 76.9750 %
190 30-09-2017 00:00:00 16.51167 C 76.8667 %
191 01-10-2017 00:00:00 15.07167 C 73.4917 %
192 02-10-2017 00:00:00 14.96167 C 75.8333 %
193 03-10-2017 00:00:00 15.05583 C 75.3167 %
194 04-10-2017 00:00:00 14.14417 C 72.4833 %
195 05-10-2017 00:00:00 14.39917 C 74.4417 %
196 06-10-2017 00:00:00 13.515 C 72.0000 %
197 07-10-2017 00:00:00 13.36583 C 74.1000 %
198 08-10-2017 00:00:00 13.59833 C 76.1167 %
199 09-10-2017 00:00:00 13.71417 C 76.4750 %
200 10-10-2017 00:00:00 14.10667 C 77.2250 %
Sensor: Nr:Datum:Temp:Feuchte:
G-T/H 201 11-10-2017 00:00:00 14.48833 C 77.7500 %
202 12-10-2017 00:00:00 14.45833 C 77.2083 %
203 13-10-2017 00:00:00 14.39417 C 77.1167 %
204 14-10-2017 00:00:00 14.55667 C 77.2000 %
205 15-10-2017 00:00:00 14.22167 C 77.1917 %
206 16-10-2017 00:00:00 14.72417 C 80.6250 %
207 17-10-2017 00:00:00 14.50583 C 80.0333 %
208 18-10-2017 00:00:00 14.23 C 79.1833 %
209 19-10-2017 00:00:00 13.8025 C 76.9750 %
210 20-10-2017 00:00:00 14.11261 C 77.8235 %
211 21-10-2017 00:00:00 13.58417 C 75.6250 %
212 22-10-2017 00:00:00 13.64333 C 74.5083 %
213 23-10-2017 00:00:00 13.15167 C 73.8667 %
214 24-10-2017 00:00:00 13.7125 C 77.3167 %
215 25-10-2017 00:00:00 14.60167 C 78.0000 %
216 26-10-2017 00:00:00 14.7325 C 78.0000 %
217 27-10-2017 00:00:00 14.395 C 76.2583 %
218 28-10-2017 00:00:00 13.38917 C 71.6000 %
219 29-10-2017 00:00:00 13.2736 C 70.4000 %
220 30-10-2017 00:00:00 11.94167 C 67.1167 %
221 31-10-2017 00:00:00 11.315 C 67.7083 %
222 01-11-2017 00:00:00 11.75833 C 71.3750 %
223 02-11-2017 00:00:00 11.43667 C 71.0500 %
224 03-11-2017 00:00:00 11.36333 C 71.6167 %
225 04-11-2017 00:00:00 11.05083 C 71.6417 %
Sensor: Nr:Datum:Temp:Feuchte:
G-T/H 226 05-11-2017 00:00:00 11.7925 C 73.8417 %
227 06-11-2017 00:00:00 10.80417 C 68.9083 %
228 07-11-2017 00:00:00 10.16167 C 68.1500 %
229 08-11-2017 00:00:00 10.51583 C 72.8417 %
230 09-11-2017 00:00:00 10.89833 C 74.4833 %
231 10-11-2017 00:00:00 10.70833 C 72.4333 %
232 11-11-2017 00:00:00 10.25917 C 71.3500 %
233 12-11-2017 00:00:00 9.99417 C 71.9333 %
234 13-11-2017 00:00:00 9.82667 C 72.4833 %
235 14-11-2017 00:00:00 9.44833 C 71.5833 %
236 15-11-2017 00:00:00 9.78417 C 73.4833 %
237 16-11-2017 00:00:00 9.8675 C 71.0000 %
238 17-11-2017 00:00:00 10.21917 C 72.6917 %
239 18-11-2017 00:00:00 8.93333 C 68.2833 %
240 19-11-2017 00:00:00 9.44917 C 70.7667 %
241 20-11-2017 00:00:00 9.4175 C 70.1500 %
242 21-11-2017 00:00:00 10.07833 C 73.5833 %
243 22-11-2017 00:00:00 10.72 C 73.9917 %
244 23-11-2017 00:00:00 10.0175 C 71.3000 %
245 24-11-2017 00:00:00 11.32583 C 75.4750 %
246 25-11-2017 00:00:00 10.815 C 70.9083 %
247 26-11-2017 00:00:00 9.25 C 65.7167 %
248 27-11-2017 00:00:00 9.09917 C 68.4083 %
249 28-11-2017 00:00:00 9.38167 C 70.0917 %
250 29-11-2017 00:00:00 8.70583 C 68.4167 %
Sensor: Nr:Datum:Temp:Feuchte:
G-T/H 251 30-11-2017 00:00:00 8.38083 C 67.8167 %
252 01-12-2017 00:00:00 7.8275 C 66.9750 %
253 02-12-2017 00:00:00 6.8025 C 64.3667 %
254 03-12-2017 00:00:00 7.2 C 63.1583 %
255 04-12-2017 00:00:00 7.5275 C 69.7417 %
256 05-12-2017 00:00:00 8.31833 C 73.2750 %
257 06-12-2017 00:00:00 8.98333 C 73.6833 %
258 07-12-2017 00:00:00 8.76667 C 67.2083 %
259 08-12-2017 00:00:00 8.66917 C 66.2417 %
260 09-12-2017 00:00:00 7.4925 C 59.9167 %
261 10-12-2017 00:00:00 7.18333 C 64.1750 %
262 11-12-2017 00:00:00 7.94417 C 72.5667 %
263 12-12-2017 00:00:00 8.19083 C 68.4083 %
264 13-12-2017 00:00:00 7.93917 C 67.1333 %
265 14-12-2017 00:00:00 7.92667 C 69.1000 %
266 15-12-2017 00:00:00 7.94167 C 70.5000 %
267 16-12-2017 00:00:00 7.925 C 71.0833 %
268 17-12-2017 00:00:00 7.8375 C 69.7667 %
269 18-12-2017 00:00:00 7.10333 C 67.6500 %
270 19-12-2017 00:00:00 7.60417 C 70.4667 %
271 20-12-2017 00:00:00 8.29083 C 73.0000 %
272 21-12-2017 00:00:00 9.43333 C 74.8833 %
273 22-12-2017 00:00:00 10.32333 C 75.8833 %
274 23-12-2017 00:00:00 10.45667 C 76.0750 %
275 24-12-2017 00:00:00 10.61417 C 75.9000 %
Sensor: Nr:Datum:Temp:Feuchte:
G-T/H 276 25-12-2017 00:00:00 10.30833 C 71.7667 %
277 26-12-2017 00:00:00 9.0975 C 68.1083 %
278 27-12-2017 00:00:00 8.905 C 71.4083 %
279 28-12-2017 00:00:00 8.96167 C 70.6417 %
280 29-12-2017 00:00:00 14.36852 C 70.8611 %
281 30-12-2017 00:00:00 8.1925 C 73.4750 %
282 31-12-2017 00:00:00 10.73 C 74.9167 %
283 01-01-2018 00:00:00 10.91333 C 70.9167 %
284 02-01-2018 00:00:00 9.93833 C 71.7000 %
285 03-01-2018 00:00:00 9.98417 C 71.9333 %
286 04-01-2018 00:00:00 9.81167 C 73.7667 %
287 05-01-2018 00:00:00 10.06833 C 72.5333 %
288 06-01-2018 00:00:00 9.95417 C 74.1667 %
289 07-01-2018 00:00:00 9.5275 C 72.0083 %
290 08-01-2018 00:00:00 8.9575 C 69.3000 %
291 09-01-2018 00:00:00 8.81583 C 71.4583 %
292 10-01-2018 00:00:00 9.03917 C 73.1917 %
293 11-01-2018 00:00:00 9.4725 C 74.4333 %
294 12-01-2018 00:00:00 9.7375 C 75.0000 %
295 13-01-2018 00:00:00 9.48 C 71.6333 %
296 14-01-2018 00:00:00 8.7325 C 64.1833 %
297 15-01-2018 00:00:00 8.00083 C 65.2500 %
298 16-01-2018 00:00:00 8.6025 C 70.4000 %
299 17-01-2018 00:00:00 8.19 C 66.7833 %
300 18-01-2018 00:00:00 8.2875 C 68.1000 %
Sensor: Nr:Datum:Temp:Feuchte:
G-T/H 301 19-01-2018 00:00:00 8.47333 C 67.2417 %
302 20-01-2018 00:00:00 7.515 C 67.7833 %
303 21-01-2018 00:00:00 7.5275 C 70.9250 %
304 22-01-2018 00:00:00 7.75 C 71.9417 %
305 23-01-2018 00:00:00 8.69492 C 73.4661 %
306 24-01-2018 00:00:00 9.75556 C 74.8120 %
307 25-01-2018 00:00:00 10.6075 C 75.1917 %
308 26-01-2018 00:00:00 10.3125 C 74.1917 %
309 27-01-2018 00:00:00 9.54 C 72.2583 %
310 28-01-2018 00:00:00 9.4625 C 73.1917 %
311 29-01-2018 00:00:00 10.13833 C 74.2667 %
312 30-01-2018 00:00:00 9.76167 C 71.3917 %
313 31-01-2018 00:00:00 9.43 C 72.7083 %
314 01-02-2018 00:00:00 8.55 C 67.8083 %
315 02-02-2018 00:00:00 7.83917 C 68.3833 %
316 03-02-2018 00:00:00 7.98992 C 68.2521 %
317 04-02-2018 00:00:00 7.4 C 63.4333 %
318 05-02-2018 00:00:00 6.47 C 60.2917 %
319 06-02-2018 00:00:00 6.30833 C 61.8333 %
320 07-02-2018 00:00:00 6.2075 C 63.0250 %
321 08-02-2018 00:00:00 5.975 C 61.9833 %
322 09-02-2018 00:00:00 5.43333 C 63.6917 %
323 10-02-2018 00:00:00 6.105 C 66.3083 %
324 11-02-2018 00:00:00 6.99167 C 66.3833 %
325 12-02-2018 00:00:00 7.07833 C 64.5250 %
Sensor: Nr:Datum:Temp:Feuchte:
G-T/H 326 13-02-2018 00:00:00 6.335 C 60.4167 %
327 14-02-2018 00:00:00 5.87917 C 61.6500 %
328 15-02-2018 00:00:00 5.88583 C 66.8833 %
329 16-02-2018 00:00:00 6.29667 C 70.6750 %
330 17-02-2018 00:00:00 6.07083 C 67.1000 %
331 18-02-2018 00:00:00 5.89667 C 66.5500 %
332 19-02-2018 00:00:00 5.89083 C 68.3167 %
333 20-02-2018 00:00:00 6.01 C 66.1333 %
334 21-02-2018 00:00:00 5.89083 C 63.8500 %
335 22-02-2018 00:00:00 5.73333 C 61.2667 %
336 23-02-2018 00:00:00 5.48583 C 60.5583 %
337 24-02-2018 00:00:00 5.12583 C 59.3667 %
338 25-02-2018 00:00:00 4.93667 C 56.8667 %
339 26-02-2018 00:00:00 4.61167 C 55.2417 %
340 27-02-2018 00:00:00 4.5275 C 52.9667 %
341 28-02-2018 00:00:00 4.28667 C 51.9750 %
342 01-03-2018 00:00:00 4.305 C 53.0333 %
343 02-03-2018 00:00:00 4.77417 C 54.7917 %
344 03-03-2018 00:00:00 5.21917 C 60.2833 %
345 04-03-2018 00:00:00 6.01083 C 65.3000 %
346 05-03-2018 00:00:00 7.26 C 67.7083 %
347 06-03-2018 00:00:00 7.275 C 64.2583 %
348 07-03-2018 00:00:00 8.05833 C 67.2083 %
349 08-03-2018 00:00:00 8.30667 C 69.2500 %
350 09-03-2018 00:00:00 8.13 C 70.0750 %
Sensor: Nr:Datum:Temp:Feuchte:
G-T/H 351 10-03-2018 00:00:00 8.92167 C 72.5500 %
352 11-03-2018 00:00:00 10.33 C 74.6417 %
353 12-03-2018 00:00:00 10.33667 C 74.2417 %
354 13-03-2018 00:00:00 10.06083 C 73.3417 %
355 14-03-2018 00:00:00 9.31667 C 70.8667 %
356 15-03-2018 00:00:00 8.67083 C 68.2833 %
357 16-03-2018 00:00:00 9.4175 C 72.0250 %
358 17-03-2018 00:00:00 8.13333 C 61.2417 %
359 18-03-2018 00:00:00 6.64 C 57.5417 %
360 19-03-2018 00:00:00 6.395 C 58.4417 %
361 20-03-2018 00:00:00 6.19167 C 59.8333 %
362 21-03-2018 00:00:00 6.24 C 61.0167 %
363 22-03-2018 00:00:00 6.45333 C 62.8500 %
364 23-03-2018 00:00:00 7.555 C 68.1250 %
365 24-03-2018 00:00:00 7.95833 C 66.2333 %
366 25-03-2018 00:00:00 7.42522 C 63.5130 %
367 26-03-2018 00:00:00 8.47583 C 65.8417 %
368 27-03-2018 00:00:00 8.32583 C 65.0083 %
369 28-03-2018 00:00:00 9.05 C 70.1833 %
370 29-03-2018 00:00:00 9.1875 C 67.9333 %
371 30-03-2018 00:00:00 8.73083 C 65.5333 %
372 31-03-2018 00:00:00 9.3075 C 68.4417 %
373 01-04-2018 00:00:00 9.65917 C 69.4500 %
374 02-04-2018 00:00:00 9.52333 C 68.1000 %
375 03-04-2018 00:00:00 10.725 C 69.7000 %
Sensor: Nr:Datum:Temp:Feuchte:
G-T/H 376 04-04-2018 00:00:00 11.48583 C 70.6333 %
377 05-04-2018 00:00:00 10.94833 C 68.8000 %
378 06-04-2018 00:00:00 9.26167 C 62.4833 %
379 07-04-2018 00:00:00 10.58667 C 62.3917 %
380 08-04-2018 00:00:00 13.47 C 59.0417 %
381 09-04-2018 00:00:00 14.53917 C 57.1667 %
382 10-04-2018 00:00:00 13.77667 C 63.5000 %
383 11-04-2018 00:00:00 13.00917 C 66.6083 %
384 12-04-2018 00:00:00 12.9425 C 66.9917 %
385 13-04-2018 00:00:00 12.73333 C 67.2917 %
386 14-04-2018 00:00:00 13.63417 C 61.7667 %
387 15-04-2018 00:00:00 13.92167 C 65.0333 %
388 16-04-2018 00:00:00 14.52167 C 62.0000 %
389 17-04-2018 00:00:00 14.20333 C 61.1500 %
390 18-04-2018 00:00:00 14.54417 C 62.2333 %
391 19-04-2018 00:00:00 14.79583 C 62.5583 %
392 20-04-2018 00:00:00 15.73333 C 61.3833 %
393 21-04-2018 00:00:00 15.80333 C 63.5083 %
394 22-04-2018 00:00:00 15.78333 C 66.2917 %
395 23-04-2018 00:00:00 17.01667 C 62.7833 %
396 24-04-2018 00:00:00 16.23833 C 56.5917 %
397 25-04-2018 00:00:00 15.21833 C 62.0333 %
398 26-04-2018 00:00:00 13.76 C 51.5583 %
399 27-04-2018 00:00:00 13.61917 C 56.6250 %
400 28-04-2018 00:00:00 13.9325 C 61.2917 %
Sensor: Nr:Datum:Temp:Feuchte:
G-T/H 401 29-04-2018 00:00:00 14.02083 C 64.6000 %
402 30-04-2018 00:00:00 14.6725 C 64.2917 %
403 01-05-2018 00:00:00 13.36417 C 58.0083 %
404 02-05-2018 00:00:00 13.24833 C 56.1500 %
405 03-05-2018 00:00:00 13.77 C 57.8750 %
406 04-05-2018 00:00:00 13.83917 C 58.3750 %
407 05-05-2018 00:00:00 15.43167 C 55.9333 %
408 06-05-2018 00:00:00 15.6825 C 57.6750 %
409 07-05-2018 00:00:00 17.61 C 52.7917 %
410 08-05-2018 00:00:00 18.74917 C 49.1583 %
411 09-05-2018 00:00:00 17.61417 C 55.5167 %
412 10-05-2018 00:00:00 16.74583 C 61.1667 %
413 11-05-2018 00:00:00 15.555 C 63.3500 %
414 12-05-2018 00:00:00 15.79083 C 63.9333 %
415 13-05-2018 00:00:00 16.08833 C 66.4583 %
416 14-05-2018 00:00:00 15.57667 C 68.2083 %
417 15-05-2018 00:00:00 16.8825 C 59.6083 %
418 16-05-2018 00:00:00 16.71333 C 63.0083 %
419 17-05-2018 00:00:00 15.91 C 63.1083 %
420 18-05-2018 00:00:00 15.1975 C 60.7083 %
421 19-05-2018 00:00:00 15.0375 C 63.1750 %
422 20-05-2018 00:00:00 15.13333 C 64.4667 %
423 21-05-2018 00:00:00 16.85667 C 64.3167 %
424 22-05-2018 00:00:00 17.2475 C 65.6333 %
425 23-05-2018 00:00:00 16.85417 C 68.0583 %
Sensor: Nr:Datum:Temp:Feuchte:
G-T/H 426 24-05-2018 00:00:00 16.56417 C 69.4500 %
427 25-05-2018 00:00:00 17.3275 C 69.1583 %
428 26-05-2018 00:00:00 18.92583 C 67.1167 %
429 27-05-2018 00:00:00 18.99167 C 68.2750 %
430 28-05-2018 00:00:00 18.94167 C 69.8667 %
431 29-05-2018 00:00:00 19.4375 C 69.9667 %
432 30-05-2018 00:00:00 19.22417 C 70.2750 %
433 31-05-2018 00:00:00 19.74667 C 69.8500 %
434 01-06-2018 00:00:00 19.70417 C 70.5583 %
435 02-06-2018 00:00:00 19.1175 C 70.5000 %
436 03-06-2018 00:00:00 19.86917 C 66.6000 %
437 04-06-2018 00:00:00 21.16 C 62.4500 %
438 05-06-2018 00:00:00 21.1225 C 62.2500 %
439 06-06-2018 00:00:00 20.28167 C 64.7000 %
440 07-06-2018 00:00:00 20.33167 C 66.7250 %
441 08-06-2018 00:00:00 20.14167 C 68.3250 %
442 09-06-2018 00:00:00 21.14508 C 68.4918 %
443 10-06-2018 00:00:00 20.73583 C 69.4833 %
444 11-06-2018 00:00:00 20.2075 C 70.2833 %
445 12-06-2018 00:00:00 18.93333 C 70.9417 %
446 13-06-2018 00:00:00 17.78333 C 67.8500 %
447 14-06-2018 00:00:00 17.08167 C 65.6167 %
448 15-06-2018 00:00:00 17.87667 C 69.7333 %
449 16-06-2018 00:00:00 19.23167 C 66.0250 %
450 17-06-2018 00:00:00 19.20917 C 66.1250 %
Sensor: Nr:Datum:Temp:Feuchte:
G-T/H 451 18-06-2018 00:00:00 18.5725 C 66.5167 %
452 19-06-2018 00:00:00 19.3025 C 68.1667 %
453 20-06-2018 00:00:00 21.34417 C 62.6417 %
454 21-06-2018 00:00:00 20.40083 C 61.7667 %
455 22-06-2018 00:00:00 18.12583 C 59.1417 %
456 23-06-2018 00:00:00 16.91917 C 60.9000 %
457 24-06-2018 00:00:00 17.08583 C 64.6833 %
458 25-06-2018 00:00:00 17.72833 C 66.0250 %
459 26-06-2018 00:00:00 18.48917 C 62.1583 %
460 27-06-2018 00:00:00 19.815 C 57.9000 %
461 28-06-2018 00:00:00 20.73667 C 53.0667 %
462 29-06-2018 00:00:00 22.01 C 53.8250 %
463 30-06-2018 00:00:00 22.90917 C 48.2667 %
464 01-07-2018 00:00:00 21.50833 C 49.2500 %
465 02-07-2018 00:00:00 21.34083 C 43.1083 %
466 03-07-2018 00:00:00 20.70167 C 49.9250 %
467 04-07-2018 00:00:00 21.1075 C 60.3667 %
468 05-07-2018 00:00:00 21.2225 C 66.7750 %
469 06-07-2018 00:00:00 20.8225 C 63.6917 %
470 07-07-2018 00:00:00 20.45126 C 62.5294 %
471 08-07-2018 00:00:00 20.11833 C 59.9000 %
472 09-07-2018 00:00:00 20.74917 C 55.1417 %
473 10-07-2018 00:00:00 20.3825 C 58.3167 %
474 11-07-2018 00:00:00 18.89583 C 62.6083 %
475 12-07-2018 00:00:00 18.92167 C 65.2500 %
Sensor: Nr:Datum:Temp:Feuchte:
G-T/H 476 13-07-2018 00:00:00 20.39417 C 62.1167 %
477 14-07-2018 00:00:00 20.52583 C 63.2833 %
478 15-07-2018 00:00:00 20.67417 C 63.4333 %
479 16-07-2018 00:00:00 20.8475 C 63.2583 %
480 17-07-2018 00:00:00 20.97167 C 63.0667 %
481 18-07-2018 00:00:00 20.9325 C 59.6167 %
482 19-07-2018 00:00:00 21.11667 C 54.9500 %
483 20-07-2018 00:00:00 21.86917 C 52.9083 %
484 21-07-2018 00:00:00 21.57333 C 58.8500 %
485 22-07-2018 00:00:00 20.75417 C 62.4750 %
486 23-07-2018 00:00:00 22.1575 C 57.9833 %
487 24-07-2018 00:00:00 23.88 C 52.9250 %
488 25-07-2018 00:00:00 24.83333 C 49.4917 %
489 26-07-2018 00:00:00 25.99417 C 48.0750 %
490 27-07-2018 00:00:00 25.445 C 46.9000 %
491 28-07-2018 00:00:00 24.04917 C 55.1667 %
492 29-07-2018 00:00:00 22.61667 C 58.5167 %
493 30-07-2018 00:00:00 24.22583 C 54.8000 %
494 31-07-2018 00:00:00 25.41833 C 51.8250 %
495 01-08-2018 00:00:00 23.80667 C 61.0833 %
496 02-08-2018 00:00:00 23.36417 C 62.3583 %
497 03-08-2018 00:00:00 24.53167 C 58.5333 %
498 04-08-2018 00:00:00 25.9125 C 50.5583 %
499 05-08-2018 00:00:00 24.74417 C 53.5917 %
500 06-08-2018 00:00:00 24.53333 C 49.9583 %
Sensor: Nr:Datum:Temp:Feuchte:
G-T/H 501 07-08-2018 00:00:00 24.12667 C 54.2583 %
502 08-08-2018 00:00:00 24.27667 C 57.4917 %
503 09-08-2018 00:00:00 23.23333 C 60.5250 %
504 10-08-2018 00:00:00 21.49417 C 54.0000 %
505 11-08-2018 00:00:00 20.81667 C 56.0583 %
506 12-08-2018 00:00:00 20.13 C 56.1333 %
507 13-08-2018 00:00:00 20.07083 C 60.5667 %
508 14-08-2018 00:00:00 19.80333 C 63.5000 %
509 15-08-2018 00:00:00 19.82917 C 65.0667 %
510 16-08-2018 00:00:00 19.9875 C 64.3500 %
511 17-08-2018 00:00:00 20.46083 C 64.9583 %
512 18-08-2018 00:00:00 19.96167 C 62.2667 %
513 19-08-2018 00:00:00 19.83667 C 62.1667 %
514 20-08-2018 00:00:00 21.2525 C 62.2667 %
515 21-08-2018 00:00:00 21.17667 C 63.9333 %
516 22-08-2018 00:00:00 21.1725 C 64.1750 %
517 23-08-2018 00:00:00 21.47667 C 64.7000 %
518 24-08-2018 00:00:00 21.1275 C 62.0417 %
519 25-08-2018 00:00:00 19.5075 C 59.1667 %
520 26-08-2018 00:00:00 18.22417 C 55.7083 %
521 27-08-2018 00:00:00 18.48167 C 60.4500 %
522 28-08-2018 00:00:00 18.53833 C 61.2250 %
523 29-08-2018 00:00:00 18.56917 C 62.2417 %
524 30-08-2018 00:00:00 18.82333 C 63.4833 %
525 31-08-2018 00:00:00 18.3025 C 59.8750 %
Sensor: Nr:Datum:Temp:Feuchte:
G-T/H 526 01-09-2018 00:00:00 17.4825 C 59.8917 %
527 02-09-2018 00:00:00 16.9325 C 62.1583 %
528 03-09-2018 00:00:00 18.13333 C 66.0000 %
529 04-09-2018 00:00:00 19.61083 C 66.7083 %
530 05-09-2018 00:00:00 19.59583 C 67.1750 %
531 06-09-2018 00:00:00 19.38917 C 68.3667 %
532 07-09-2018 00:00:00 18.6775 C 67.7917 %
533 08-09-2018 00:00:00 17.10833 C 59.8333 %
534 09-09-2018 00:00:00 17.1975 C 64.7667 %
535 10-09-2018 00:00:00 18.47583 C 60.5250 %
536 11-09-2018 00:00:00 19.45417 C 58.4917 %
537 12-09-2018 00:00:00 18.84083 C 60.8833 %
538 13-09-2018 00:00:00 18.58083 C 66.2167 %
539 14-09-2018 00:00:00 18.04833 C 65.0000 %
540 15-09-2018 00:00:00 17.66667 C 59.8833 %
541 16-09-2018 00:00:00 16.83 C 61.8000 %
542 17-09-2018 00:00:00 17.8475 C 57.0583 %
543 18-09-2018 00:00:00 19.79417 C 56.2333 %
544 19-09-2018 00:00:00 21.03083 C 58.0583 %
545 20-09-2018 00:00:00 20.82 C 55.5500 %
546 21-09-2018 00:00:00 19.29417 C 59.4833 %
547 22-09-2018 00:00:00 17.24917 C 60.5250 %
548 23-09-2018 00:00:00 16.50167 C 65.7500 %
549 24-09-2018 00:00:00 15.14583 C 63.3167 %
550 25-09-2018 00:00:00 13.7275 C 62.7333 %
Sensor: Nr:Datum:Temp:Feuchte:
G-T/H 551 26-09-2018 00:00:00 13.02583 C 63.2917 %
552 27-09-2018 00:00:00 13.0625 C 65.7333 %
553 28-09-2018 00:00:00 13.53583 C 69.5083 %
554 29-09-2018 00:00:00 12.62 C 64.5750 %
555 30-09-2018 00:00:00 11.83417 C 63.4000 %
556 01-10-2018 00:00:00 12.43167 C 68.0167 %
557 02-10-2018 00:00:00 12.47917 C 67.0333 %
558 03-10-2018 00:00:00 13.125 C 70.8750 %
559 04-10-2018 00:00:00 12.85083 C 66.8417 %
560 05-10-2018 00:00:00 13.175 C 68.1250 %
561 06-10-2018 00:00:00 12.79833 C 73.9167 %
562 07-10-2018 00:00:00 14.22167 C 74.0833 %
563 08-10-2018 00:00:00 13.52083 C 69.3917 %
564 09-10-2018 00:00:00 13.39083 C 72.8583 %
565 10-10-2018 00:00:00 13.75333 C 75.3000 %
566 11-10-2018 00:00:00 13.985 C 75.0167 %
567 12-10-2018 00:00:00 14.54333 C 75.8417 %
568 13-10-2018 00:00:00 15.69 C 72.6083 %
569 14-10-2018 00:00:00 15.11667 C 72.1917 %
570 15-10-2018 00:00:00 14.6725 C 73.1583 %
571 16-10-2018 00:00:00 14.08333 C 72.8917 %
572 17-10-2018 00:00:00 13.86667 C 73.4083 %
573 18-10-2018 00:00:00 14.26083 C 74.7500 %
574 19-10-2018 00:00:00 14.28333 C 73.2417 %
575 20-10-2018 00:00:00 14.01833 C 72.8250 %
Sensor: Nr:Datum:Temp:Feuchte:
G-T/H 576 21-10-2018 00:00:00 12.52583 C 67.5917 %
577 22-10-2018 00:00:00 11.7575 C 67.8750 %
578 23-10-2018 00:00:00 11.71417 C 69.2333 %
579 24-10-2018 00:00:00 13.1175 C 73.3417 %
580 25-10-2018 00:00:00 13.88083 C 73.4083 %
581 26-10-2018 00:00:00 13.5375 C 68.0250 %
582 27-10-2018 00:00:00 12.19667 C 65.8417 %
583 28-10-2018 00:00:00 10.9176 C 62.4880 %
584 29-10-2018 00:00:00 10.95583 C 65.6250 %
585 30-10-2018 00:00:00 10.86333 C 67.5167 %
586 31-10-2018 00:00:00 10.8775 C 68.4750 %
587 01-11-2018 00:00:00 10.72083 C 69.2750 %
588 02-11-2018 00:00:00 11.285 C 72.4667 %
589 03-11-2018 00:00:00 10.44 C 67.0750 %
590 04-11-2018 00:00:00 10.265 C 68.6167 %
591 05-11-2018 00:00:00 11.60167 C 72.5750 %
592 06-11-2018 00:00:00 11.5475 C 72.0167 %
593 07-11-2018 00:00:00 11.24083 C 72.4083 %
594 08-11-2018 00:00:00 11.87833 C 74.0333 %
595 09-11-2018 00:00:00 11.62333 C 73.2750 %
596 10-11-2018 00:00:00 12.22833 C 74.7000 %
597 11-11-2018 00:00:00 12.73917 C 75.7833 %
598 12-11-2018 00:00:00 13.255 C 75.6083 %
599 13-11-2018 00:00:00 13.2975 C 75.3417 %
600 14-11-2018 00:00:00 11.54667 C 70.8583 %
Sensor: Nr:Datum:Temp:Feuchte:
G-T/H 601 15-11-2018 00:00:00 11.19417 C 71.8333 %
602 16-11-2018 00:00:00 10.76833 C 68.8833 %
603 17-11-2018 00:00:00 9.25167 C 68.0000 %
604 18-11-2018 00:00:00 8.3775 C 68.4167 %
605 19-11-2018 00:00:00 8.15 C 69.1333 %
606 20-11-2018 00:00:00 8.56667 C 68.8833 %
607 21-11-2018 00:00:00 8.45333 C 69.6833 %
608 22-11-2018 00:00:00 8.65333 C 70.9083 %
609 23-11-2018 00:00:00 7.69667 C 69.4917 %
610 24-11-2018 00:00:00 8.0325 C 72.4750 %
611 25-11-2018 00:00:00 9.05667 C 73.9333 %
612 26-11-2018 00:00:00 9.6625 C 74.3250 %
613 27-11-2018 00:00:00 9.61333 C 72.8000 %
614 28-11-2018 00:00:00 8.91917 C 71.9583 %
615 29-11-2018 00:00:00 9.26083 C 73.8000 %
616 30-11-2018 00:00:00 9.63 C 74.7833 %
617 01-12-2018 00:00:00 9.92417 C 74.6250 %
618 02-12-2018 00:00:00 10.7275 C 75.6167 %
619 03-12-2018 00:00:00 11.87333 C 76.5417 %
620 04-12-2018 00:00:00 11.3275 C 72.0250 %
621 05-12-2018 00:00:00 9.61933 C 69.0504 %
622 06-12-2018 00:00:00 10.40583 C 72.9583 %
623 07-12-2018 00:00:00 11.82917 C 74.0583 %
624 08-12-2018 00:00:00 11.04667 C 70.6667 %
625 09-12-2018 00:00:00 10.81167 C 72.8000 %
Sensor: Nr:Datum:Temp:Feuchte:
G-T/H 626 10-12-2018 00:00:00 10.01083 C 71.3083 %
627 11-12-2018 00:00:00 9.19083 C 71.8583 %
628 12-12-2018 00:00:00 8.70667 C 72.1583 %
629 13-12-2018 00:00:00 8.07083 C 70.1167 %
630 14-12-2018 00:00:00 7.78 C 68.6583 %
631 15-12-2018 00:00:00 7.575 C 68.1083 %
632 16-12-2018 00:00:00 7.33667 C 67.4333 %
633 17-12-2018 00:00:00 7.74583 C 71.2333 %
634 18-12-2018 00:00:00 8.3475 C 72.4667 %
635 19-12-2018 00:00:00 8.60083 C 72.9417 %
636 20-12-2018 00:00:00 9.3175 C 74.0000 %
637 21-12-2018 00:00:00 10.0375 C 74.8333 %
638 22-12-2018 00:00:00 10.99417 C 74.3000 %
639 23-12-2018 00:00:00 10.525 C 74.6917 %
640 24-12-2018 00:00:00 10.26583 C 72.2917 %
641 25-12-2018 00:00:00 8.6825 C 71.1167 %
642 26-12-2018 00:00:00 7.58083 C 70.1333 %
643 27-12-2018 00:00:00 6.98167 C 70.2333 %
644 28-12-2018 00:00:00 6.8575 C 71.5833 %
645 29-12-2018 00:00:00 7.085 C 72.4583 %
646 30-12-2018 00:00:00 8.24 C 74.4417 %
647 31-12-2018 00:00:00 9.18833 C 75.6083 %
648 01-01-2019 00:00:00 9.65583 C 75.8167 %
649 02-01-2019 00:00:00 8.91333 C 73.4000 %
650 03-01-2019 00:00:00 7.65417 C 72.7000 %
Sensor: Nr:Datum:Temp:Feuchte:
G-T/H 651 04-01-2019 00:00:00 7.72667 C 73.7750 %
652 05-01-2019 00:00:00 8.26833 C 74.6083 %
653 06-01-2019 00:00:00 8.8 C 75.9250 %
654 07-01-2019 00:00:00 8.94 C 75.0167 %
655 08-01-2019 00:00:00 9.01833 C 74.5417 %
656 09-01-2019 00:00:00 8.46417 C 73.0417 %
657 10-01-2019 00:00:00 7.90083 C 71.3750 %
658 11-01-2019 00:00:00 7.57167 C 72.1167 %
659 12-01-2019 00:00:00 8.24417 C 74.2500 %
660 13-01-2019 00:00:00 8.91667 C 75.6333 %
661 14-01-2019 00:00:00 9.11083 C 74.7417 %
662 15-01-2019 00:00:00 8.33333 C 74.3833 %
663 16-01-2019 00:00:00 8.5125 C 74.7083 %
664 17-01-2019 00:00:00 8.4975 C 74.5500 %
665 18-01-2019 00:00:00 7.79333 C 72.6583 %
666 19-01-2019 00:00:00 6.99833 C 69.2000 %
667 20-01-2019 00:00:00 6.61083 C 64.8583 %
668 21-01-2019 00:00:00 6.18667 C 61.1750 %
669 22-01-2019 00:00:00 6.04833 C 60.2083 %
670 23-01-2019 00:00:00 6.2575 C 63.4917 %
671 24-01-2019 00:00:00 6.30833 C 65.6583 %
672 25-01-2019 00:00:00 6.2425 C 67.2833 %
673 26-01-2019 00:00:00 6.51833 C 71.7083 %
674 27-01-2019 00:00:00 7.75333 C 73.9667 %
675 28-01-2019 00:00:00 7.77417 C 74.2417 %
Sensor: Nr:Datum:Temp:Feuchte:
G-T/H 676 29-01-2019 00:00:00 7.46167 C 73.9917 %
677 30-01-2019 00:00:00 6.65667 C 69.5667 %
678 31-01-2019 00:00:00 6.54333 C 72.1667 %
679 01-02-2019 00:00:00 6.475 C 73.4167 %
680 02-02-2019 00:00:00 6.70083 C 74.6612 %
681 03-02-2019 00:00:00 6.98667 C 74.3417 %
682 04-02-2019 00:00:00 6.68333 C 73.8083 %
683 05-02-2019 00:00:00 7.12 C 74.5083 %
684 06-02-2019 00:00:00 6.9875 C 73.4333 %
685 07-02-2019 00:00:00 7.0025 C 74.8750 %
686 08-02-2019 00:00:00 7.93833 C 76.1083 %
687 09-02-2019 00:00:00 8.85917 C 76.1583 %
688 10-02-2019 00:00:00 9.2225 C 75.9667 %
689 11-02-2019 00:00:00 8.8125 C 75.1083 %
690 12-02-2019 00:00:00 8.09167 C 74.2167 %
691 13-02-2019 00:00:00 7.47583 C 73.5000 %
692 14-02-2019 00:00:00 6.95583 C 72.5083 %
693 15-02-2019 00:00:00 6.6825 C 71.6250 %
694 16-02-2019 00:00:00 6.53917 C 73.3083 %
695 17-02-2019 00:00:00 6.63667 C 74.1417 %
696 18-02-2019 00:00:00 6.65583 C 74.3000 %
697 19-02-2019 00:00:00 7.19417 C 75.8083 %
698 20-02-2019 00:00:00 7.495 C 75.5500 %
699 21-02-2019 00:00:00 7.76167 C 75.7333 %
700 22-02-2019 00:00:00 9.21417 C 77.2250 %
Sensor: Nr:Datum:Temp:Feuchte:
G-T/H 701 23-02-2019 00:00:00 9.20583 C 74.8917 %
702 24-02-2019 00:00:00 8.01917 C 72.1333 %
703 25-02-2019 00:00:00 7.5975 C 71.6250 %
704 26-02-2019 00:00:00 7.74083 C 71.5500 %
705 27-02-2019 00:00:00 6.63667 C 68.6917 %
706 28-02-2019 00:00:00 8.11917 C 73.1500 %
707 01-03-2019 00:00:00 9.37083 C 74.7583 %
708 02-03-2019 00:00:00 9.69333 C 72.8750 %
709 03-03-2019 00:00:00 10.36917 C 73.5083 %
710 04-03-2019 00:00:00 10.60917 C 73.1083 %
711 05-03-2019 00:00:00 9.71 C 71.6083 %
712 06-03-2019 00:00:00 9.71 C 73.4333 %
713 07-03-2019 00:00:00 10.48417 C 73.6500 %
714 08-03-2019 00:00:00 10.0575 C 72.7250 %
715 09-03-2019 00:00:00 10.17167 C 73.4333 %
716 10-03-2019 00:00:00 10.60917 C 71.4667 %
717 11-03-2019 00:00:00 9.44833 C 67.3667 %
718 12-03-2019 00:00:00 8.92417 C 70.4667 %
719 13-03-2019 00:00:00 9.345 C 71.3250 %
720 14-03-2019 00:00:00 9.13333 C 72.3750 %
721 15-03-2019 00:00:00 10.055 C 74.0583 %
722 16-03-2019 00:00:00 10.57417 C 72.1333 %
723 17-03-2019 00:00:00 9.70583 C 61.2083 %
724 18-03-2019 00:00:00 6.8675 C 62.4667 %
725 19-03-2019 00:00:00 6.02333 C 59.7583 %
Sensor: Nr:Datum:Temp:Feuchte:
G-T/H 726 20-03-2019 00:00:00 7.52333 C 64.5167 %
727 21-03-2019 00:00:00 9.29167 C 60.4917 %
728 22-03-2019 00:00:00 10.14833 C 61.3250 %
729 23-03-2019 00:00:00 10.15917 C 64.7250 %
730 24-03-2019 00:00:00 9.54833 C 67.2167 %
731 25-03-2019 00:00:00 9.15583 C 67.9000 %
732 26-03-2019 00:00:00 9.0525 C 69.7250 %
733 27-03-2019 00:00:00 9.47917 C 69.9333 %
734 28-03-2019 00:00:00 9.49583 C 69.9417 %
735 29-03-2019 00:00:00 10.2825 C 66.2583 %
736 30-03-2019 00:00:00 9.79667 C 60.6083 %
737 31-03-2019 00:00:00 11.2313 C 64.9130 %
738 01-04-2019 00:00:00 11.50333 C 60.3833 %
739 02-04-2019 00:00:00 11.2875 C 63.6333 %
740 03-04-2019 00:00:00 11.49833 C 67.0000 %
741 04-04-2019 00:00:00 10.56333 C 67.8833 %
742 05-04-2019 00:00:00 9.87333 C 68.5417 %
743 06-04-2019 00:00:00 10.76333 C 69.0417 %
744 07-04-2019 00:00:00 11.4925 C 68.0667 %
745 08-04-2019 00:00:00 12.30917 C 70.6833 %
746 09-04-2019 00:00:00 12.2875 C 74.7333 %
747 10-04-2019 00:00:00 12.35917 C 56.9917 %
748 11-04-2019 00:00:00 10.73083 C 48.4917 %
749 12-04-2019 00:00:00 9.57417 C 46.6333 %
750 13-04-2019 00:00:00 9.48583 C 55.2583 %
Sensor: Nr:Datum:Temp:Feuchte:
G-T/H 751 14-04-2019 00:00:00 9.175 C 58.5167 %
752 15-04-2019 00:00:00 10.07667 C 62.0833 %
753 16-04-2019 00:00:00 11.07083 C 62.2083 %
754 17-04-2019 00:00:00 12.33417 C 65.8333 %
755 18-04-2019 00:00:00 13.09417 C 62.0833 %
756 19-04-2019 00:00:00 14.9125 C 51.5500 %
757 20-04-2019 00:00:00 15.6775 C 48.0417 %
758 21-04-2019 00:00:00 16.29 C 47.3167 %
759 22-04-2019 00:00:00 15.22333 C 52.2417 %
760 23-04-2019 00:00:00 15.61417 C 53.2333 %
761 24-04-2019 00:00:00 15.37833 C 59.4167 %
762 25-04-2019 00:00:00 14.5575 C 61.5833 %
763 26-04-2019 00:00:00 14.28667 C 64.1250 %
764 27-04-2019 00:00:00 13.445 C 64.1833 %
765 28-04-2019 00:00:00 12.45 C 64.1833 %
766 29-04-2019 00:00:00 11.95083 C 63.4083 %
767 30-04-2019 00:00:00 13.89833 C 57.8083 %
768 01-05-2019 00:00:00 14.135 C 60.2833 %
769 02-05-2019 00:00:00 13.82333 C 62.1750 %
770 03-05-2019 00:00:00 13.86417 C 59.4750 %
771 04-05-2019 00:00:00 12.72083 C 59.0083 %
772 05-05-2019 00:00:00 11.31667 C 59.7917 %
773 06-05-2019 00:00:00 11.38833 C 61.2833 %
774 07-05-2019 00:00:00 11.88083 C 62.6250 %
775 08-05-2019 00:00:00 11.97 C 62.9333 %
Sensor: Nr:Datum:Temp:Feuchte:
G-T/H 776 09-05-2019 00:00:00 12.35167 C 66.7333 %
777 10-05-2019 00:00:00 12.92101 C 67.6218 %
778 11-05-2019 00:00:00 13.15833 C 68.0833 %
779 12-05-2019 00:00:00 12.12833 C 64.0833 %
780 13-05-2019 00:00:00 12.045 C 60.0000 %
781 14-05-2019 00:00:00 12.31083 C 59.7417 %
782 15-05-2019 00:00:00 12.7725 C 52.9833 %
783 16-05-2019 00:00:00 13.015 C 56.6333 %
784 17-05-2019 00:00:00 13.21917 C 63.1000 %
785 18-05-2019 00:00:00 14.04667 C 66.4250 %
786 19-05-2019 00:00:00 14.825 C 68.0750 %
787 20-05-2019 00:00:00 14.84583 C 68.8000 %
788 21-05-2019 00:00:00 14.15167 C 70.0167 %
789 22-05-2019 00:00:00 13.71167 C 69.7583 %
790 23-05-2019 00:00:00 15.29917 C 61.3750 %
791 24-05-2019 00:00:00 17.54 C 55.6333 %
792 25-05-2019 00:00:00 17.29083 C 56.6250 %
793 26-05-2019 00:00:00 16.44583 C 60.8167 %
794 27-05-2019 00:00:00 16.3925 C 64.3917 %
795 28-05-2019 00:00:00 15.71583 C 66.5333 %
796 29-05-2019 00:00:00 16.0475 C 54.4250 %
797 30-05-2019 00:00:00 15.75417 C 61.4167 %
798 31-05-2019 00:00:00 17.74167 C 65.2667 %
799 01-06-2019 00:00:00 18.025 C 65.0750 %
800 02-06-2019 00:00:00 18.60667 C 66.0917 %
Sensor: Nr:Datum:Temp:Feuchte:
G-T/H 801 03-06-2019 00:00:00 19.92333 C 65.8667 %
802 04-06-2019 00:00:00 19.69667 C 66.1500 %
803 05-06-2019 00:00:00 20.025 C 66.6917 %
804 06-06-2019 00:00:00 19.2775 C 64.1917 %
805 07-06-2019 00:00:00 17.86583 C 60.1250 %
806 08-06-2019 00:00:00 17.565 C 60.2333 %
807 09-06-2019 00:00:00 16.99667 C 61.5667 %
808 10-06-2019 00:00:00 17.96333 C 64.8583 %
809 11-06-2019 00:00:00 18.18333 C 66.3917 %
810 12-06-2019 00:00:00 17.70333 C 67.3917 %
811 13-06-2019 00:00:00 17.89167 C 58.1667 %
812 14-06-2019 00:00:00 19.59083 C 60.6083 %
813 15-06-2019 00:00:00 19.6625 C 64.9917 %
814 16-06-2019 00:00:00 19.56917 C 62.4417 %
815 17-06-2019 00:00:00 19.01167 C 62.8417 %
816 18-06-2019 00:00:00 21.23667 C 58.9250 %
817 19-06-2019 00:00:00 21.53167 C 61.1000 %
818 20-06-2019 00:00:00 20.7375 C 63.5667 %
819 21-06-2019 00:00:00 20.53083 C 52.5000 %
820 22-06-2019 00:00:00 20.16917 C 54.8083 %
821 23-06-2019 00:00:00 21.31917 C 57.1667 %
822 24-06-2019 00:00:00 23.94167 C 55.3000 %
823 25-06-2019 00:00:00 23.93083 C 58.5083 %
824 26-06-2019 00:00:00 24.37417 C 62.9417 %
825 27-06-2019 00:00:00 23.60667 C 60.8333 %
Sensor: Nr:Datum:Temp:Feuchte:
G-T/H 826 28-06-2019 00:00:00 22.21417 C 58.6667 %
827 29-06-2019 00:00:00 24.105 C 45.4667 %
828 30-06-2019 00:00:00 23.46833 C 52.6667 %
829 01-07-2019 00:00:00 23.14417 C 56.9333 %
830 02-07-2019 00:00:00 21.5975 C 49.7667 %
831 03-07-2019 00:00:00 20.46667 C 46.5000 %
832 04-07-2019 00:00:00 20.24 C 44.2750 %
833 05-07-2019 00:00:00 20.99583 C 47.4667 %
834 06-07-2019 00:00:00 21.055 C 53.0250 %
835 07-07-2019 00:00:00 20.39667 C 54.9083 %
836 08-07-2019 00:00:00 18.37167 C 51.1250 %
837 09-07-2019 00:00:00 18.10583 C 49.1417 %
838 10-07-2019 00:00:00 18.91917 C 42.0333 %
839 11-07-2019 00:00:00 18.91167 C 59.7083 %
840 12-07-2019 00:00:00 18.3025 C 73.7917 %
841 13-07-2019 00:00:00 18.47333 C 67.7417 %
842 14-07-2019 00:00:00 18.46917 C 65.0917 %
843 15-07-2019 00:00:00 18.2725 C 59.6250 %
844 16-07-2019 00:00:00 17.95917 C 58.3667 %
845 17-07-2019 00:00:00 18.23667 C 61.2917 %
846 18-07-2019 00:00:00 19.79417 C 58.3083 %
847 19-07-2019 00:00:00 19.79417 C 61.5917 %
848 20-07-2019 00:00:00 19.78583 C 63.8500 %
849 21-07-2019 00:00:00 20.41333 C 63.8583 %
850 22-07-2019 00:00:00 22.33167 C 54.5167 %
Sensor: Nr:Datum:Temp:Feuchte:
G-T/H 851 23-07-2019 00:00:00 22.5225 C 56.8667 %
852 24-07-2019 00:00:00 23.21833 C 58.3417 %
853 25-07-2019 00:00:00 24.345 C 57.0083 %
854 26-07-2019 00:00:00 24.17667 C 57.8500 %
855 27-07-2019 00:00:00 23.54 C 61.3083 %
856 28-07-2019 00:00:00 22.08333 C 64.8167 %
857 29-07-2019 00:00:00 21.58833 C 59.7917 %
858 30-07-2019 00:00:00 21.785 C 58.7750 %
859 31-07-2019 00:00:00 22.4025 C 50.4333 %
860 01-08-2019 00:00:00 21.77083 C 49.7000 %
861 02-08-2019 00:00:00 21.34583 C 55.7750 %
862 03-08-2019 00:00:00 20.90667 C 59.1167 %
863 04-08-2019 00:00:00 20.4525 C 59.4750 %
864 05-08-2019 00:00:00 22.07 C 57.0167 %
865 06-08-2019 00:00:00 21.48083 C 59.7417 %
866 07-08-2019 00:00:00 21.08 C 63.1500 %
867 08-08-2019 00:00:00 20.60333 C 62.6167 %
868 09-08-2019 00:00:00 20.50167 C 64.6000 %
869 10-08-2019 00:00:00 20.38917 C 65.0917 %
870 11-08-2019 00:00:00 19.8725 C 64.3750 %
871 12-08-2019 00:00:00 19.0475 C 65.6000 %
872 13-08-2019 00:00:00 18.645 C 58.8417 %
873 14-08-2019 00:00:00 18.54583 C 57.0833 %
874 15-08-2019 00:00:00 18.91583 C 62.6250 %
875 16-08-2019 00:00:00 18.59917 C 65.5583 %
Sensor: Nr:Datum:Temp:Feuchte:
G-T/H 876 17-08-2019 00:00:00 18.78167 C 67.1583 %
877 18-08-2019 00:00:00 19.07417 C 68.7167 %
878 19-08-2019 00:00:00 19.70167 C 61.8833 %
879 20-08-2019 00:00:00 18.7775 C 58.6500 %
880 21-08-2019 00:00:00 18.37 C 62.6500 %
881 22-08-2019 00:00:00 18.7725 C 58.7167 %
882 23-08-2019 00:00:00 19.34333 C 56.0250 %
883 24-08-2019 00:00:00 19.1825 C 58.5917 %
884 25-08-2019 00:00:00 19.53 C 63.3500 %
885 26-08-2019 00:00:00 21.84417 C 64.5833 %
886 27-08-2019 00:00:00 21.31417 C 66.1667 %
887 28-08-2019 00:00:00 21.07 C 66.6583 %
888 29-08-2019 00:00:00 21.03417 C 66.8417 %
889 30-08-2019 00:00:00 20.6775 C 66.8917 %
890 31-08-2019 00:00:00 20.2775 C 66.5917 %
891 01-09-2019 00:00:00 20.59167 C 65.4167 %
892 02-09-2019 00:00:00 18.59583 C 51.3417 %
893 03-09-2019 00:00:00 16.5475 C 53.5583 %
894 04-09-2019 00:00:00 18.68667 C 56.9667 %
895 05-09-2019 00:00:00 18.34667 C 60.0000 %
896 06-09-2019 00:00:00 17.44333 C 56.1750 %
897 07-09-2019 00:00:00 17.36583 C 60.4417 %
898 08-09-2019 00:00:00 16.54309 C 65.9350 %
899 09-09-2019 00:00:00 16.06067 C 66.7333 %
900 10-09-2019 00:00:00 15.23333 C 63.6597 %
Sensor: Nr:Datum:Temp:Feuchte:
G-T/H 901 11-09-2019 00:00:00 15.74097 C 61.0833 %
902 12-09-2019 00:00:00 17.93194 C 67.6319 %
903 13-09-2019 00:00:00 18.68472 C 70.9653 %
904 14-09-2019 00:00:00 18.01181 C 65.5903 %
905 15-09-2019 00:00:00 17.60347 C 61.9722 %
906 16-09-2019 00:00:00 17.78264 C 60.7361 %
907 17-09-2019 00:00:00 17.67431 C 62.7083 %
908 18-09-2019 00:00:00 15.39444 C 57.2778 %
909 19-09-2019 00:00:00 14.12361 C 57.3125 %
910 20-09-2019 00:00:00 13.22639 C 59.3056 %
911 21-09-2019 00:00:00 15.10833 C 52.5278 %
912 22-09-2019 00:00:00 15.13194 C 59.2083 %
913 23-09-2019 00:00:00 16.27153 C 64.4028 %
914 24-09-2019 00:00:00 16.11528 C 66.2778 %
915 25-09-2019 00:00:00 16.20556 C 67.8681 %
916 26-09-2019 00:00:00 16.33542 C 69.4097 %
917 27-09-2019 00:00:00 16.76458 C 69.3611 %
918 28-09-2019 00:00:00 16.47083 C 68.9792 %
919 29-09-2019 00:00:00 16.41458 C 69.6528 %
920 30-09-2019 00:00:00 16.64236 C 66.7917 %
921 01-10-2019 00:00:00 16.54167 C 68.3542 %
922 02-10-2019 00:00:00 16.15694 C 67.3056 %
923 03-10-2019 00:00:00 14.67222 C 66.7361 %
924 04-10-2019 00:00:00 14.15556 C 70.1319 %
925 05-10-2019 00:00:00 14.31875 C 71.1667 %
Sensor: Nr:Datum:Temp:Feuchte:
G-T/H 926 06-10-2019 00:00:00 13.69306 C 70.7847 %
927 07-10-2019 00:00:00 13.58056 C 72.7153 %
928 08-10-2019 00:00:00 14.14097 C 74.1597 %
929 09-10-2019 00:00:00 14.23472 C 74.0486 %
930 10-10-2019 00:00:00 14.00139 C 74.0278 %
931 11-10-2019 00:00:00 13.98819 C 74.3333 %
932 12-10-2019 00:00:00 14.71181 C 71.7639 %
933 13-10-2019 00:00:00 15.13472 C 74.9097 %
934 14-10-2019 00:00:00 16.34722 C 74.3958 %
935 15-10-2019 00:00:00 15.98125 C 73.6597 %
936 16-10-2019 00:00:00 15.42708 C 73.2986 %
937 17-10-2019 00:00:00 15.28056 C 74.7292 %
938 18-10-2019 00:00:00 15.18681 C 74.6042 %
939 19-10-2019 00:00:00 14.72222 C 74.1944 %
940 20-10-2019 00:00:00 14.40278 C 81.1597 %
941 21-10-2019 00:00:00 14.60625 C 80.9028 %
942 22-10-2019 00:00:00 14.62153 C 77.5000 %
943 23-10-2019 00:00:00 14.00764 C 76.3542 %
944 24-10-2019 00:00:00 14.52986 C 78.0139 %
945 25-10-2019 00:00:00 15.10694 C 74.8681 %
946 26-10-2019 00:00:00 14.99028 C 74.2153 %
947 27-10-2019 00:00:00 14.43933 C 74.9333 %
948 28-10-2019 00:00:00 12.81389 C 71.1806 %
949 29-10-2019 00:00:00 12.35556 C 71.6389 %
950 30-10-2019 00:00:00 10.98611 C 65.8194 %
Sensor: Nr:Datum:Temp:Feuchte:
G-T/H 951 31-10-2019 00:00:00 9.49097 C 64.1736 %
952 01-11-2019 00:00:00 9.67014 C 69.2569 %
953 02-11-2019 00:00:00 12.01181 C 74.2222 %
954 03-11-2019 00:00:00 12.91806 C 75.4861 %
955 04-11-2019 00:00:00 12.97569 C 75.6250 %
956 05-11-2019 00:00:00 12.58194 C 75.9444 %
957 06-11-2019 00:00:00 12.33194 C 75.6528 %
958 07-11-2019 00:00:00 12.18403 C 75.3403 %
959 08-11-2019 00:00:00 11.13611 C 70.1181 %
960 09-11-2019 00:00:00 11.02014 C 69.0972 %
961 10-11-2019 00:00:00 9.95556 C 68.3056 %
962 11-11-2019 00:00:00 9.96458 C 71.2708 %
963 12-11-2019 00:00:00 10.11458 C 72.0972 %
964 13-11-2019 00:00:00 10.0125 C 72.4097 %
965 14-11-2019 00:00:00 9.73403 C 68.3958 %
966 15-11-2019 00:00:00 9.68819 C 69.4028 %
967 16-11-2019 00:00:00 9.6125 C 68.7083 %
968 17-11-2019 00:00:00 9.03819 C 69.9306 %
969 18-11-2019 00:00:00 9.47361 C 72.2500 %
970 19-11-2019 00:00:00 9.40903 C 72.0833 %
971 20-11-2019 00:00:00 8.93333 C 71.1181 %
972 21-11-2019 00:00:00 8.40559 C 70.8182 %
973 22-11-2019 00:00:00 8.70556 C 72.6736 %
974 23-11-2019 00:00:00 9.32569 C 73.0972 %
975 24-11-2019 00:00:00 9.08333 C 72.0764 %
Sensor: Nr:Datum:Temp:Feuchte:
G-T/H 976 25-11-2019 00:00:00 9.04375 C 73.5069 %
977 26-11-2019 00:00:00 9.85139 C 74.9375 %
978 27-11-2019 00:00:00 10.87847 C 75.9236 %
979 28-11-2019 00:00:00 11.51597 C 75.5069 %
980 29-11-2019 00:00:00 11.25208 C 72.3542 %
981 30-11-2019 00:00:00 9.66736 C 68.9097 %
982 01-12-2019 00:00:00 8.81806 C 70.1806 %
983 02-12-2019 00:00:00 8.35278 C 70.5417 %
984 03-12-2019 00:00:00 8.74514 C 73.3472 %
985 04-12-2019 00:00:00 8.79375 C 71.8403 %
986 05-12-2019 00:00:00 7.92014 C 69.1458 %
987 06-12-2019 00:00:00 7.57292 C 70.7014 %
988 07-12-2019 00:00:00 8.97014 C 74.4514 %
989 08-12-2019 00:00:00 10.25694 C 75.1667 %
990 09-12-2019 00:00:00 10.48403 C 74.1111 %
991 10-12-2019 00:00:00 9.34028 C 71.5903 %
992 11-12-2019 00:00:00 8.75694 C 73.1250 %
993 12-12-2019 00:00:00 8.81042 C 73.2500 %
994 13-12-2019 00:00:00 8.51944 C 72.1458 %
995 14-12-2019 00:00:00 8.92153 C 73.0764 %
996 15-12-2019 00:00:00 9.56736 C 74.6667 %
997 16-12-2019 00:00:00 9.90486 C 75.1389 %
998 17-12-2019 00:00:00 10.43333 C 75.4583 %
999 18-12-2019 00:00:00 10.925 C 75.4861 %
1000 19-12-2019 00:00:00 9.76667 C 73.6667 %
Sensor: Nr:Datum:Temp:Feuchte:
G-T/H 1001 20-12-2019 00:00:00 9.69375 C 75.0208 %
1002 21-12-2019 00:00:00 10.06458 C 74.5833 %
1003 22-12-2019 00:00:00 10.1375 C 75.1528 %
1004 23-12-2019 00:00:00 10.30417 C 75.3681 %
1005 24-12-2019 00:00:00 10.12639 C 74.9375 %
1006 25-12-2019 00:00:00 10.24444 C 75.9653 %
1007 26-12-2019 00:00:00 9.92708 C 75.2569 %
1008 27-12-2019 00:00:00 9.69444 C 75.5833 %
1009 28-12-2019 00:00:00 8.37639 C 70.3194 %
1010 29-12-2019 00:00:00 7.21528 C 69.6875 %
1011 30-12-2019 00:00:00 7.16944 C 69.0486 %
1012 31-12-2019 00:00:00 6.93194 C 69.9722 %
1013 01-01-2020 00:00:00 7.23125 C 70.8403 %
1014 02-01-2020 00:00:00 7.28958 C 70.5417 %
1015 03-01-2020 00:00:00 8.41389 C 73.4792 %
1016 04-01-2020 00:00:00 9.12431 C 73.5833 %
1017 05-01-2020 00:00:00 9.42917 C 73.5694 %
1018 06-01-2020 00:00:00 9.33958 C 72.1181 %
1019 07-01-2020 00:00:00 8.74583 C 72.1111 %
1020 08-01-2020 00:00:00 9.18611 C 74.0347 %
1021 09-01-2020 00:00:00 10.3875 C 76.5556 %
1022 10-01-2020 00:00:00 11.02153 C 75.1389 %
1023 11-01-2020 00:00:00 10.04097 C 73.2014 %
1024 12-01-2020 00:00:00 9.14861 C 72.8958 %
1025 13-01-2020 00:00:00 9.30833 C 74.5139 %
Sensor: Nr:Datum:Temp:Feuchte:
G-T/H 1026 14-01-2020 00:00:00 9.78958 C 75.6597 %
1027 15-01-2020 00:00:00 10.59028 C 75.5972 %
1028 16-01-2020 00:00:00 10.82222 C 75.8264 %
1029 17-01-2020 00:00:00 9.87847 C 74.9583 %
1030 18-01-2020 00:00:00 9.38125 C 74.1597 %
1031 19-01-2020 00:00:00 8.86667 C 74.2569 %
1032 20-01-2020 00:00:00 8.75 C 73.1111 %
1033 21-01-2020 00:00:00 7.77014 C 69.7847 %
1034 22-01-2020 00:00:00 7.17083 C 69.5903 %
1035 23-01-2020 00:00:00 7.63472 C 70.8611 %
1036 24-01-2020 00:00:00 7.71319 C 70.9097 %
1037 25-01-2020 00:00:00 7.96806 C 71.5139 %
1038 26-01-2020 00:00:00 7.98611 C 72.6597 %
1039 27-01-2020 00:00:00 8.21875 C 74.7500 %
1040 28-01-2020 00:00:00 8.85833 C 75.1458 %
1041 29-01-2020 00:00:00 8.44306 C 74.0000 %
1042 30-01-2020 00:00:00 8.61389 C 74.8750 %
1043 31-01-2020 00:00:00 10.32431 C 76.3958 %
1044 01-02-2020 00:00:00 11.40556 C 76.3681 %
1045 02-02-2020 00:00:00 11.15903 C 73.6736 %
1046 03-02-2020 00:00:00 11.4875 C 75.0000 %
1047 04-02-2020 00:00:00 10.54722 C 71.2847 %
1048 05-02-2020 00:00:00 9.47153 C 71.9236 %
1049 06-02-2020 00:00:00 8.34306 C 70.5208 %
1050 07-02-2020 00:00:00 7.79097 C 69.9167 %
Sensor: Nr:Datum:Temp:Feuchte:
G-T/H 1051 08-02-2020 00:00:00 7.33681 C 70.6528 %
1052 09-02-2020 00:00:00 8.3 C 73.5694 %
1053 10-02-2020 00:00:00 9.82708 C 73.9167 %
1054 11-02-2020 00:00:00 9.18194 C 72.2431 %
1055 12-02-2020 00:00:00 8.72083 C 72.8750 %
1056 13-02-2020 00:00:00 8.20208 C 72.5208 %
1057 14-02-2020 00:00:00 8.84653 C 74.7500 %
1058 15-02-2020 00:00:00 8.93958 C 73.5903 %
1059 16-02-2020 00:00:00 11.3125 C 68.1111 %
1060 17-02-2020 00:00:00 11.77708 C 69.2778 %
1061 18-02-2020 00:00:00 10.43056 C 67.4028 %
1062 19-02-2020 00:00:00 9.94514 C 69.4583 %
1063 20-02-2020 00:00:00 9.73472 C 71.6875 %
1064 21-02-2020 00:00:00 9.56875 C 71.4931 %
1065 22-02-2020 00:00:00 9.25625 C 72.0625 %
1066 23-02-2020 00:00:00 10.38403 C 73.7708 %
1067 24-02-2020 00:00:00 10.40903 C 71.9792 %
1068 25-02-2020 00:00:00 10.88819 C 73.0278 %
1069 26-02-2020 00:00:00 10.02917 C 68.9306 %
1070 27-02-2020 00:00:00 9.17986 C 71.0208 %
1071 28-02-2020 00:00:00 8.31042 C 73.7708 %
1072 29-02-2020 00:00:00 9.28125 C 75.1597 %
1073 01-03-2020 00:00:00 9.80486 C 74.3403 %
1074 02-03-2020 00:00:00 9.67847 C 73.5833 %
1075 03-03-2020 00:00:00 9.53681 C 73.3194 %
Sensor: Nr:Datum:Temp:Feuchte:
G-T/H 1076 04-03-2020 00:00:00 8.95833 C 73.5139 %
1077 05-03-2020 00:00:00 9.15833 C 73.9861 %
1078 06-03-2020 00:00:00 9.48958 C 74.9514 %
1079 07-03-2020 00:00:00 9.38611 C 74.0556 %
1080 08-03-2020 00:00:00 9.99583 C 74.7292 %
1081 09-03-2020 00:00:00 10.54861 C 73.8819 %
1082 10-03-2020 00:00:00 10.28056 C 73.3819 %
1083 11-03-2020 00:00:00 11.72083 C 75.8889 %
1084 12-03-2020 00:00:00 12.29653 C 71.3333 %
1085 13-03-2020 00:00:00 11.08333 C 68.2014 %
1086 14-03-2020 00:00:00 10.32361 C 70.1250 %
1087 15-03-2020 00:00:00 10.87153 C 65.1667 %
1088 16-03-2020 00:00:00 10.71667 C 66.3819 %
1089 17-03-2020 00:00:00 11.47153 C 70.7292 %
1090 18-03-2020 00:00:00 11.42569 C 70.3472 %
1091 19-03-2020 00:00:00 12.36736 C 67.4583 %
1092 20-03-2020 00:00:00 12.53217 C 67.5944 %
1093 21-03-2020 00:00:00 11.55903 C 63.9097 %
1094 22-03-2020 00:00:00 9.66111 C 61.2292 %
1095 23-03-2020 00:00:00 8.67431 C 62.8819 %
1096 24-03-2020 00:00:00 8.04028 C 63.8611 %

Maximal/Minimal-Werte vom 25.03.2017 - 24.03.2020

Sensor Min Max Avg
Temp
(Aussen-T/F)
-12.4 °C
27-02-2018  07:25:17
46.2 °C
19-06-2017  18:30:17
11.21 °C
Feuchte
(Aussen-T/F)
20 %
25-03-2017  09:40:17
78 %
23-11-2017  06:30:17
32.5 %
Temp
(G-T/H)
2 °C
27-02-2018  07:01:17
29.7 °C
26-07-2018  16:25:17
13.66 °C
Feuchte
(G-T/H)
25 %
29-06-2019  18:04:17
85 %
16-10-2017  15:03:17
66.65 %

Die Daten stammen von einer Davis Vantage Pro 2 Wetter-Station und werden unter Linux mit der Software wview2wettercgi und aufbereitet. Alle Angaben erfolgen ohne Gewähr für ihre Vollständigkeit oder Richtigkeit.
Kontakt: Rainer Krienke krienke@uni-koblenz.de . Meine Webseiten an der Uni Koblenz oder privat.
Version: $Revision: 0.78 $